GFSNGP_925_thetae_057.txt.gz
Theta_e
308 307 307 308 309 307 304 305 307 306 306 306 306 306 306 309 306 303 300 298 295 295 294 294 294 294 294 294 293 294 294 294 294 295 295 295 296 295 295 295 294 294 293 292
303 307 307 308 309 308 307 307 307 307 309 308 308 308 313 308 304 300 299 297 294 294 293 294 294 294 294 293 293 293 293 293 293 293 293 293 292 292 292 292 292 292 292 292
307 306 307 309 309 309 307 306 309 310 309 308 310 311 313 307 302 299 298 296 294 292 292 294 295 294 294 294 294 293 293 293 292 292 292 292 291 292 291 292 292 293 293 294
309 305 309 306 307 307 308 308 307 308 308 309 308 311 304 302 299 297 296 295 293 292 292 293 293 294 294 294 293 293 292 292 292 292 291 291 291 291 291 291 292 292 292 292
308 310 306 312 310 309 310 315 307 307 307 307 311 308 306 299 296 294 294 293 293 292 292 292 292 293 293 293 292 292 292 291 291 292 291 292 292 292 292 292 291 290 290 289
308 311 312 308 310 311 311 317 311 307 308 312 312 315 312 298 296 295 294 294 294 293 293 293 292 292 292 292 292 291 291 291 291 291 291 291 291 291 290 289 289 289 288 287
307 309 307 305 306 310 320 316 311 310 310 312 313 309 302 297 296 295 294 293 294 293 293 292 292 292 291 291 291 291 291 291 291 291 291 291 290 290 290 287 284 283 283 285
308 311 308 306 312 319 315 310 310 309 308 311 307 302 299 297 295 294 293 293 294 293 293 292 292 292 291 290 290 291 291 291 291 291 291 289 286 284 283 283 283 282 282 282
306 306 305 307 310 310 309 309 308 307 307 308 305 302 300 298 296 295 293 292 292 293 292 292 291 292 291 291 291 291 291 290 289 286 285 284 284 284 284 283 283 282 281 281
311 311 307 308 308 306 306 306 306 304 305 304 305 302 300 297 295 294 293 292 292 292 292 292 292 292 292 292 291 291 287 285 284 284 284 283 283 282 282 281 281 280 280 280
308 308 309 310 309 307 307 304 303 303 304 303 302 301 300 298 296 295 294 293 293 293 293 292 292 292 292 292 290 286 285 284 284 283 283 282 283 283 282 281 281 281 281 281
315 308 308 309 308 306 306 305 302 301 303 301 300 299 299 298 297 295 293 291 292 292 292 292 293 293 292 289 288 286 284 284 283 283 283 283 284 284 284 284 283 283 282 282
308 304 303 304 303 301 302 302 301 300 300 301 298 297 297 296 295 294 292 291 292 292 293 294 293 290 287 287 287 285 284 284 283 282 282 282 281 280 280 281 281 280 281 280
303 302 305 304 304 298 298 298 299 298 299 299 298 296 296 295 295 292 291 292 294 294 293 293 290 287 287 287 286 285 284 283 282 281 281 280 279 279 279 279 278 278 278 279
298 298 300 300 298 297 296 295 297 296 295 295 297 294 294 294 294 291 291 292 292 293 292 289 287 287 286 286 286 285 284 283 282 281 280 279 279 279 279 278 277 277 277 277
296 296 299 299 300 299 296 296 295 295 293 292 292 293 293 294 293 292 291 290 289 288 290 288 287 287 286 286 285 284 283 282 281 280 280 279 279 279 278 278 277 277 277 277
297 299 297 298 298 298 299 297 295 294 293 291 291 292 293 292 292 290 289 289 289 290 290 288 287 287 286 286 285 284 282 281 280 280 280 279 279 278 278 278 277 277 277 277
294 295 296 297 296 296 297 300 297 295 293 293 291 291 290 290 291 289 288 288 288 288 288 288 287 287 286 285 284 283 282 281 280 280 280 279 279 278 278 277 277 277 277 276
296 296 296 297 297 296 297 299 299 297 294 292 290 289 290 290 290 290 289 288 287 286 287 287 286 286 285 284 283 282 281 281 280 280 279 279 279 278 277 277 277 277 276 276
294 294 294 295 297 297 293 294 295 293 292 291 290 288 288 288 289 289 288 287 286 287 288 286 286 285 284 283 283 282 281 281 280 279 279 278 278 278 277 277 277 276 276 276
292 292 292 292 293 295 295 292 291 291 290 290 289 288 288 288 289 289 286 285 286 287 288 286 286 285 284 283 282 281 281 280 280 279 279 278 278 277 277 277 277 276 276 275
290 290 290 290 290 290 291 293 293 292 290 289 289 289 288 287 286 285 286 286 287 286 286 286 285 285 284 283 283 281 281 280 280 279 278 278 278 277 277 277 276 276 276 275
288 288 288 288 288 288 289 288 290 291 291 290 288 287 286 287 286 284 284 286 286 285 286 286 286 285 283 283 282 281 281 280 280 279 278 278 278 277 277 277 276 276 276 275
286 286 287 287 288 287 287 286 287 287 288 289 289 289 288 286 286 285 285 287 287 286 286 286 285 284 283 283 282 281 280 280 279 279 278 277 277 277 277 277 276 276 276 275
284 285 286 286 286 285 286 286 286 286 286 286 286 287 287 288 288 287 286 286 286 285 286 286 285 284 283 283 282 281 280 280 279 278 278 277 277 277 277 276 276 276 276 276
282 282 283 285 285 284 283 285 286 286 286 285 286 286 286 285 285 285 286 286 286 285 286 285 284 284 284 283 282 281 280 279 279 278 278 277 277 277 277 276 276 276 276 276
281 282 282 281 282 281 281 283 285 285 286 285 285 286 285 285 285 284 285 284 285 285 285 285 283 283 283 283 282 282 280 279 278 278 277 277 277 277 277 276 276 276 276 276

GFSNGP_925_thetae_060.txt.gz
Theta_e
310 309 310 312 312 310 311 313 319 311 310 311 310 311 311 313 310 307 305 303 301 301 300 300 300 299 298 298 297 297 297 296 296 295 294 295 294 294 294 294 293 293 293 292
311 309 309 311 311 311 311 311 311 312 312 311 311 311 313 314 309 305 301 300 299 298 299 300 300 299 298 298 296 296 295 294 294 293 293 292 293 293 293 293 293 293 293 293
314 309 310 314 312 312 311 311 312 314 312 311 311 311 314 311 307 303 300 299 298 297 297 298 298 297 297 297 296 296 295 294 293 292 291 291 291 292 292 292 292 292 292 292
313 311 317 311 309 310 311 311 310 311 311 311 311 311 309 307 305 302 299 298 296 296 296 296 296 296 296 296 294 293 293 292 292 291 291 291 291 292 292 292 292 291 291 290
313 312 311 313 310 311 313 318 311 310 311 311 310 313 312 304 300 299 298 296 295 294 294 295 295 295 295 294 294 292 292 292 291 291 291 291 290 290 290 291 290 290 289 289
311 313 314 315 312 312 311 322 314 311 313 313 315 321 318 304 299 298 297 296 296 295 294 294 293 294 294 293 293 291 291 291 291 291 291 290 290 290 290 290 289 289 288 288
313 314 311 309 309 309 322 320 314 313 314 314 316 316 307 301 299 298 297 296 295 294 294 293 293 293 292 292 291 291 291 291 291 291 291 291 290 290 289 286 285 285 285 286
310 312 312 308 313 319 317 313 312 312 312 312 311 304 302 300 299 297 296 295 295 294 294 293 292 292 292 291 291 291 291 291 290 290 289 287 285 285 285 285 284 284 283 283
311 311 308 309 311 311 310 311 311 311 310 310 308 304 303 299 298 297 295 294 294 293 293 292 291 293 292 291 291 291 290 288 286 285 285 285 285 285 284 284 284 283 283 283
311 312 310 309 309 309 309 310 309 308 308 309 310 306 302 300 297 295 294 294 294 294 294 292 292 293 293 292 291 289 287 285 285 285 284 284 283 283 283 283 283 283 283 283
312 311 311 312 312 310 308 307 306 305 306 307 308 306 304 300 297 296 295 294 294 295 294 293 292 292 292 291 289 287 286 285 285 284 284 284 284 283 283 282 282 283 282 282
313 312 313 313 309 306 308 308 307 306 306 306 306 306 304 301 298 296 295 295 295 295 294 293 292 291 291 289 287 286 285 285 284 284 284 285 285 285 284 284 283 283 282 282
312 307 308 308 306 303 304 304 303 303 304 305 304 304 303 302 298 296 295 294 295 296 295 294 293 291 289 289 286 285 285 284 284 284 284 284 283 283 283 282 281 281 281 281
304 305 309 306 307 303 302 301 300 300 301 302 303 301 301 300 298 297 294 293 295 295 294 294 292 289 288 288 286 285 284 284 283 282 282 281 281 280 280 280 280 280 278 279
302 300 302 301 301 302 300 299 300 301 300 300 301 300 299 298 298 296 294 293 294 295 294 292 290 287 287 287 286 285 284 283 282 281 281 280 280 279 279 279 279 279 278 278
299 299 300 301 301 301 301 299 299 301 299 298 298 299 298 298 297 294 293 293 292 294 293 292 290 287 287 287 286 284 283 283 282 281 281 280 279 279 279 279 279 279 278 278
299 301 299 299 299 300 301 301 300 298 297 297 297 297 296 296 294 293 291 291 292 292 292 292 291 288 287 286 285 284 283 282 282 281 280 280 280 279 279 279 279 278 278 277
296 297 297 298 299 299 300 301 300 300 297 296 294 293 294 295 294 293 291 290 290 290 290 292 291 288 287 286 285 284 283 282 281 280 280 279 279 279 279 278 278 278 278 277
296 296 296 296 297 298 299 298 299 301 298 295 293 293 294 293 293 291 290 289 287 287 288 289 289 287 287 286 285 284 283 282 280 279 279 279 280 279 278 278 278 278 278 277
295 293 293 294 295 296 296 293 293 295 294 293 292 291 291 290 290 290 289 288 288 288 290 289 287 287 287 286 285 283 282 281 280 279 279 279 279 278 278 278 278 278 277 277
292 292 293 292 292 292 293 294 292 292 291 290 291 290 289 289 289 290 288 288 290 291 291 289 289 287 286 285 284 283 282 281 280 279 279 279 279 278 278 277 277 277 276 276
291 291 291 291 291 291 290 291 293 292 291 290 289 289 289 288 288 288 289 289 291 291 288 287 286 286 286 284 283 282 281 280 280 279 279 279 278 278 278 277 277 277 276 276
288 289 289 289 289 289 289 288 287 289 291 291 290 288 288 288 288 286 287 287 287 286 287 286 287 287 286 283 283 282 281 280 280 280 279 279 278 278 278 277 277 277 276 276
287 287 287 287 288 288 288 287 286 286 286 287 288 289 289 287 287 287 286 287 287 286 286 287 287 286 285 283 283 282 281 280 280 280 279 279 278 278 277 277 277 277 276 276
284 284 285 286 287 286 285 284 287 287 286 286 286 286 287 288 288 289 289 288 289 285 285 286 285 285 284 284 284 282 281 281 280 280 279 279 278 278 277 277 277 277 276 276
283 283 283 283 284 283 282 283 285 286 287 286 286 286 286 285 285 285 285 286 286 286 285 285 284 285 285 284 284 283 282 281 280 280 279 279 278 277 277 277 277 277 276 276
281 282 282 282 281 280 281 283 284 285 285 285 286 286 285 285 285 285 285 285 285 285 286 285 284 285 285 285 284 283 282 281 280 280 279 278 278 277 277 277 277 277 276 276

GFSNGP_925_thetae_063.txt.gz
Theta_e
312 311 312 314 314 313 314 315 321 314 313 312 312 312 313 314 314 312 309 306 305 305 304 304 303 303 302 301 300 299 299 298 297 297 296 295 295 295 295 294 293 293 294 293
314 311 311 313 313 313 313 312 313 313 313 312 312 312 314 315 314 311 306 304 302 302 302 303 303 302 301 300 299 299 297 297 296 295 294 293 293 293 293 292 292 293 293 293
315 311 311 315 313 313 313 312 313 315 313 312 312 313 313 316 313 310 306 303 302 301 301 301 301 300 299 299 298 297 296 295 294 293 293 292 292 292 292 292 292 292 292 292
315 313 318 315 311 312 313 312 312 312 313 312 312 311 313 312 312 308 304 302 300 300 299 299 299 298 298 297 295 294 293 293 293 293 292 291 291 291 291 291 291 290 290 290
315 315 314 312 311 312 314 317 312 312 312 312 312 313 316 310 306 305 303 301 299 298 297 297 297 297 297 296 295 293 292 292 292 291 290 290 291 290 290 290 290 289 289 289
313 315 316 317 314 312 313 322 316 314 314 315 314 321 321 308 303 301 300 299 298 297 296 296 295 296 296 294 293 292 292 292 292 291 292 291 290 290 290 290 289 289 288 289
314 313 313 311 313 310 322 321 315 315 315 316 317 317 312 305 303 301 300 299 298 297 296 296 295 295 292 292 291 291 291 291 292 292 291 290 290 290 288 287 287 287 287 287
312 313 314 309 312 315 318 315 314 314 314 314 313 307 305 303 302 300 299 298 297 297 296 295 294 293 292 292 292 292 291 291 291 291 290 288 287 287 287 286 286 285 285 284
311 312 310 311 313 312 312 314 314 313 312 311 311 306 305 302 300 300 299 297 297 296 294 293 293 293 292 291 291 292 292 290 288 287 287 287 287 286 286 286 285 284 284 284
312 313 311 310 311 311 311 311 311 310 310 310 312 309 305 302 299 298 297 296 296 295 294 293 294 293 293 293 293 292 290 287 287 286 286 285 285 284 285 284 284 284 284 284
313 312 313 314 313 313 311 310 310 309 307 308 309 310 306 303 300 298 297 296 296 296 295 294 293 294 294 294 292 290 287 287 286 286 285 285 285 285 284 284 284 284 283 283
314 312 313 314 313 309 310 310 309 309 308 307 308 309 307 305 301 299 297 296 296 296 295 294 294 294 294 292 290 288 287 286 286 286 286 286 286 286 284 284 283 282 282 282
312 311 311 310 308 306 307 306 306 305 306 307 307 308 307 306 302 299 297 296 297 297 295 295 294 294 293 291 288 287 287 286 286 286 286 286 285 285 285 283 281 280 280 280
308 308 310 310 311 306 305 305 303 303 303 304 305 306 306 306 303 300 298 296 296 297 296 296 295 294 291 289 287 286 286 286 285 285 284 284 283 282 282 282 282 281 280 279
306 304 305 304 304 304 304 303 303 303 304 303 303 304 304 304 303 300 298 295 296 296 296 296 296 294 289 289 287 286 285 285 284 283 283 282 282 281 281 281 281 281 280 280
303 301 301 302 304 303 303 304 303 303 303 302 302 302 302 302 301 300 297 294 295 295 296 296 294 291 288 288 287 286 285 284 283 283 282 281 281 281 281 281 280 280 280 280
302 303 302 301 301 302 302 303 303 303 302 301 300 300 301 300 300 298 295 293 295 295 296 294 293 291 290 288 287 285 285 284 283 282 282 281 281 281 281 280 280 280 280 279
297 298 299 299 300 300 301 301 302 302 302 302 298 297 298 299 299 296 293 292 293 294 295 294 293 293 289 288 287 285 284 284 283 282 282 281 281 281 280 280 280 280 279 279
297 298 297 296 296 297 298 299 297 297 300 301 297 295 296 297 297 295 293 290 290 291 292 293 293 293 289 287 287 285 284 283 283 282 281 281 281 280 280 280 279 279 279 279
295 294 293 293 294 294 295 296 294 294 296 296 295 295 294 295 294 293 291 290 291 291 292 292 291 291 289 287 286 285 284 283 282 281 281 280 281 281 280 279 279 279 279 279
294 294 294 293 292 292 291 293 294 292 292 292 293 293 292 291 291 291 289 289 290 290 291 290 291 290 287 286 285 285 284 283 282 281 280 280 280 280 279 279 279 278 278 278
292 293 292 292 292 292 291 290 290 292 292 291 290 290 290 289 289 288 289 290 291 291 290 291 291 291 289 285 285 285 284 283 282 281 280 280 280 280 279 279 279 279 278 278
290 290 290 290 291 291 291 290 289 288 288 290 291 290 289 290 290 288 289 291 291 290 290 291 291 291 290 286 284 284 284 283 282 281 280 280 280 279 279 279 279 279 278 278
289 288 288 288 289 289 289 287 288 288 287 287 287 288 289 289 289 289 289 289 287 286 287 287 287 287 286 285 284 284 283 282 282 281 280 280 280 279 279 278 278 278 278 277
286 285 286 287 287 287 285 284 286 288 288 288 287 286 286 286 287 288 288 288 287 286 286 286 286 286 286 284 285 285 284 283 282 282 281 280 280 279 279 278 278 278 278 277
285 285 284 284 284 284 283 284 285 286 286 286 287 287 286 285 285 285 285 285 286 286 288 286 285 285 285 284 284 284 284 283 282 281 281 280 280 279 279 278 278 277 277 277
283 283 284 284 283 282 282 284 284 285 285 285 285 286 286 286 285 285 285 285 284 285 285 286 286 285 285 285 284 283 283 283 282 281 280 280 279 279 279 278 277 277 278 277

GFSNGP_925_thetae_066.txt.gz
Theta_e
312 311 313 314 314 314 310 312 309 314 312 309 309 310 310 312 313 311 309 306 305 304 302 303 303 302 301 300 299 298 297 297 296 295 295 295 295 295 294 294 293 294 294 293
308 311 311 311 313 313 313 312 311 312 312 310 310 310 311 312 313 311 308 305 302 302 302 303 302 301 301 299 299 298 297 296 295 294 293 293 293 292 292 291 292 293 293 293
312 311 311 310 311 312 312 311 311 312 311 311 311 312 312 315 313 311 306 303 302 300 300 301 300 300 299 297 297 296 295 294 293 293 292 292 291 290 291 291 291 291 291 290
310 311 311 314 311 311 312 312 311 311 311 312 311 311 312 312 312 308 304 302 300 299 299 299 299 299 298 296 294 294 293 292 292 292 291 290 290 291 290 291 290 290 289 289
311 313 312 312 310 311 312 314 311 310 310 310 312 312 313 309 306 304 301 300 299 298 298 298 298 298 297 295 293 293 292 291 291 290 290 291 291 291 289 288 289 289 288 288
313 313 316 317 311 312 312 320 314 310 310 313 313 317 317 305 302 300 300 299 298 297 297 296 296 297 296 294 293 292 291 291 291 291 291 290 290 290 289 289 288 289 289 289
312 315 311 313 312 310 320 320 314 314 315 315 314 313 308 303 302 300 299 299 298 297 296 295 296 295 293 292 292 292 292 292 292 292 292 292 290 288 287 287 287 287 287 287
312 314 310 311 310 314 315 313 313 313 313 314 310 306 305 304 302 300 298 298 297 296 296 295 294 293 292 292 292 291 291 291 292 291 291 287 287 287 286 286 285 285 284 284
309 310 310 309 311 311 311 313 312 311 310 311 309 306 304 303 301 300 299 297 297 296 294 293 293 292 292 292 292 292 292 291 289 287 287 287 286 286 286 285 284 284 284 284
310 310 309 308 309 311 312 311 310 309 309 309 311 306 305 302 300 299 299 297 297 294 293 293 293 293 293 292 292 292 290 287 286 286 286 286 285 285 284 284 284 284 284 283
310 309 311 313 310 309 309 309 309 307 307 307 308 308 304 301 299 298 298 297 296 294 294 294 294 293 292 293 293 291 288 287 286 286 285 285 284 284 284 283 284 284 283 283
312 311 310 311 309 308 310 309 308 308 308 306 307 307 305 302 300 298 297 297 296 295 294 293 293 293 294 294 292 288 287 287 286 286 286 286 285 285 285 283 282 282 281 282
309 309 309 308 306 305 306 305 305 304 304 305 306 306 307 303 301 299 297 296 296 296 295 294 294 294 294 293 290 288 287 286 286 286 286 286 286 286 285 284 282 281 281 280
307 307 309 308 308 304 304 304 303 302 302 303 304 306 306 305 302 299 297 296 296 297 295 294 294 294 294 293 290 287 287 286 286 286 286 285 284 283 282 282 282 281 281 280
305 304 303 303 303 304 303 302 302 301 302 302 303 304 304 303 301 299 298 297 297 297 296 295 295 294 293 292 289 287 286 286 286 285 284 284 283 282 282 281 281 281 280 280
303 301 301 302 302 303 302 301 302 301 301 301 301 301 303 303 303 301 300 297 296 296 297 296 295 295 294 292 289 287 286 286 285 284 283 283 282 281 281 281 281 281 280 280
302 302 301 301 300 301 301 300 300 300 300 300 300 300 300 301 301 300 299 296 296 296 296 296 296 295 294 292 290 288 286 285 285 284 283 282 282 281 281 281 281 280 280 280
297 298 299 299 298 298 298 298 299 300 299 300 301 300 298 300 299 298 298 296 295 295 296 296 296 295 293 291 289 288 287 286 285 284 283 282 282 281 281 281 280 280 280 280
297 297 296 296 295 296 297 298 297 295 294 296 300 296 296 297 298 298 296 294 292 293 294 295 295 295 293 291 289 288 287 286 285 284 283 282 282 281 281 280 280 280 280 280
295 294 294 294 294 294 293 294 295 294 293 292 295 295 294 295 296 296 294 292 292 292 293 294 294 294 294 291 288 287 287 286 285 284 283 282 281 281 281 281 280 280 279 279
295 294 294 294 293 293 291 291 292 293 293 291 290 291 291 292 292 293 291 290 291 291 292 292 292 293 292 290 287 286 286 285 284 284 283 282 282 281 281 281 280 280 279 279
292 292 292 292 292 292 291 290 289 289 290 291 291 290 290 290 289 289 290 290 291 291 290 290 291 291 292 291 290 286 285 284 284 284 283 282 281 281 281 281 280 280 279 279
290 289 289 289 289 290 291 289 289 288 288 287 288 289 290 290 290 289 290 291 290 289 290 290 290 290 290 290 289 287 285 285 284 283 283 283 282 281 281 281 280 279 279 279
289 288 288 287 288 288 285 285 285 288 288 288 287 286 287 288 288 289 289 289 290 289 287 288 289 289 289 288 288 287 287 287 285 284 283 282 282 281 280 280 280 279 279 278
286 285 286 286 285 285 284 284 285 286 286 287 287 287 287 286 285 286 286 286 287 287 286 286 286 287 288 288 288 287 287 285 284 284 283 282 282 281 281 280 280 279 279 278
285 284 284 284 283 283 283 283 284 285 285 284 285 285 285 286 286 285 285 285 285 285 286 288 287 286 286 286 285 285 284 284 284 283 284 283 282 281 280 280 280 279 278 278
283 284 283 283 283 282 282 283 284 283 284 284 283 284 284 285 285 285 285 285 285 285 285 285 286 286 286 286 285 285 285 285 284 284 283 282 282 281 280 280 279 279 278 278

GFSNGP_925_thetae_069.txt.gz
Theta_e
311 312 313 312 312 311 307 310 308 311 309 310 308 307 306 308 311 310 307 305 304 302 300 301 301 301 300 299 298 298 297 296 295 295 295 295 294 294 294 293 293 293 293 293
302 310 310 311 311 311 311 310 311 311 311 308 307 307 310 311 311 309 307 304 302 301 301 300 301 301 299 298 297 296 295 294 294 293 293 293 293 293 293 292 292 291 292 293
307 310 309 307 310 310 311 310 311 311 309 309 310 310 311 310 311 310 307 303 300 299 300 300 300 299 297 297 296 295 294 293 293 293 292 292 291 291 291 290 289 290 290 291
306 308 306 305 309 309 310 311 309 310 309 309 309 309 310 311 310 309 305 301 299 298 299 299 299 298 297 295 294 294 293 293 293 292 291 291 291 290 289 289 288 288 289 289
309 309 306 311 310 310 310 311 309 309 308 309 311 311 312 309 307 305 301 299 298 299 299 298 298 297 296 294 294 293 293 292 292 291 291 291 290 289 288 288 288 287 287 287
311 309 314 314 310 310 311 317 313 309 309 309 311 313 312 304 300 299 298 298 297 297 297 297 297 296 295 293 293 292 292 291 291 291 291 290 289 289 288 289 289 289 288 287
309 310 310 309 312 311 319 316 313 308 309 311 312 311 308 302 300 298 298 297 297 296 296 295 296 295 294 293 292 292 292 291 291 291 291 291 290 288 287 288 287 287 287 286
309 314 310 309 310 315 314 312 312 312 312 312 310 305 303 302 301 299 297 297 296 295 295 295 295 294 293 292 292 292 292 292 292 292 291 287 287 286 286 286 285 284 284 284
307 308 306 307 310 311 310 313 311 311 310 310 308 306 304 302 300 299 298 297 296 295 294 294 293 293 292 292 292 292 291 292 292 290 287 287 286 286 285 285 284 283 283 283
308 308 307 307 308 310 311 310 309 309 309 309 309 306 304 302 300 299 298 297 296 294 293 293 293 293 293 293 292 292 292 290 288 287 287 286 286 285 284 284 283 283 283 283
307 308 308 308 306 308 308 307 307 306 306 306 307 307 304 301 299 299 298 297 295 294 293 293 293 293 293 293 293 292 290 287 286 286 286 285 284 284 284 284 284 284 283 283
309 307 308 310 308 306 307 308 307 307 307 306 306 306 304 301 299 298 297 296 295 294 294 294 293 293 292 292 293 292 288 286 286 286 284 285 285 285 285 284 282 282 282 281
307 308 308 307 305 305 305 304 304 304 304 305 305 305 305 302 300 298 297 296 295 294 294 294 294 294 293 293 293 292 288 287 286 286 285 286 285 285 284 284 283 282 281 281
305 306 308 307 307 303 303 303 303 302 302 302 303 304 305 304 301 298 296 297 296 295 295 294 294 294 294 294 293 291 288 287 286 286 286 286 286 285 284 283 282 282 281 281
303 303 303 302 302 303 302 302 302 301 300 300 301 302 303 303 301 299 299 298 296 296 295 294 294 294 295 294 293 290 288 287 286 286 286 285 285 283 283 282 281 281 281 281
301 300 300 302 302 302 301 301 301 300 300 299 299 300 301 302 302 301 300 298 296 296 296 295 295 295 295 294 293 291 288 287 286 286 285 284 283 283 282 281 281 281 281 281
301 302 300 300 299 300 299 298 298 298 298 298 299 300 299 300 301 300 299 298 298 297 297 296 296 296 295 294 293 292 288 286 286 285 284 284 283 283 282 281 281 281 281 281
298 298 298 298 298 297 297 297 298 299 296 296 296 298 298 297 297 299 299 298 297 296 297 297 297 297 296 295 294 292 289 287 286 285 285 284 283 283 282 281 281 281 281 281
297 297 296 296 295 296 296 297 296 296 294 293 293 296 298 297 297 298 298 297 295 294 295 296 296 296 296 296 294 291 289 287 286 285 285 284 283 283 282 281 281 281 281 280
296 295 295 294 294 294 293 293 294 294 294 292 291 293 293 294 294 296 296 294 295 295 294 295 295 295 295 295 293 291 289 287 286 286 285 284 283 282 282 282 281 281 281 280
294 293 293 293 293 292 291 290 290 290 292 292 291 290 289 290 291 292 292 290 293 293 293 292 293 294 294 294 291 289 288 286 286 286 285 284 283 283 282 282 282 281 281 280
292 292 291 291 291 291 290 290 289 288 288 288 289 290 290 290 290 290 290 290 291 291 291 291 291 292 292 292 291 289 288 286 284 285 285 284 284 283 283 282 282 282 281 280
289 289 289 289 289 289 288 285 287 288 288 287 286 286 287 288 289 289 290 291 291 290 290 291 291 290 290 290 289 289 288 287 286 283 284 284 284 284 283 282 282 281 281 281
288 287 287 286 288 286 283 283 285 287 287 287 287 286 286 285 287 288 287 287 288 289 289 289 289 289 289 288 288 288 287 287 286 285 285 284 285 283 283 282 282 281 281 280
286 285 285 285 284 283 283 283 284 284 285 284 285 285 286 286 285 286 285 285 285 286 287 287 286 287 288 288 288 287 287 287 286 286 286 286 286 284 283 282 282 281 281 280
284 284 284 283 283 283 282 283 283 283 284 283 284 283 284 284 285 285 285 285 285 285 285 285 286 287 287 287 288 288 287 287 286 286 286 285 283 282 285 284 281 281 280 280
284 284 283 283 283 283 282 283 283 283 283 283 283 284 283 283 284 284 285 285 285 285 285 285 285 285 286 286 286 286 286 285 285 285 283 284 284 285 285 282 281 280 280 279

GFSNGP_925_thetae_072.txt.gz
Theta_e
309 311 310 310 311 310 309 313 314 314 309 309 308 308 308 309 309 310 308 306 304 302 300 301 300 300 299 299 298 297 297 296 295 295 295 295 295 294 293 293 293 294 293 292
301 309 309 309 310 310 310 309 310 309 311 309 307 306 306 305 309 310 307 304 303 301 300 300 300 300 299 298 297 296 296 294 294 294 294 293 293 292 292 292 293 293 293 293
305 309 307 308 309 310 310 309 310 311 310 308 307 307 309 308 309 309 306 303 301 300 300 300 300 299 298 297 296 295 294 293 293 293 292 292 291 291 291 291 291 292 292 292
304 305 305 307 308 308 309 309 308 309 308 307 308 307 308 308 309 309 308 303 299 298 300 300 300 298 297 296 295 295 294 293 293 292 291 291 291 290 290 290 290 290 289 288
307 307 306 308 309 309 309 309 308 309 307 307 308 309 310 308 308 308 304 301 299 299 300 299 298 297 296 295 294 294 293 293 292 292 291 291 290 289 289 288 287 287 287 287
309 309 312 308 310 307 309 313 309 308 307 307 309 310 308 307 303 301 300 299 298 299 298 298 297 296 295 294 294 293 293 292 292 292 291 291 290 289 288 287 287 287 287 286
310 313 307 306 310 310 316 313 313 308 307 306 310 307 307 302 300 299 298 297 297 297 297 297 296 295 294 294 293 293 292 292 292 291 291 290 289 288 287 288 287 287 286 285
312 313 311 308 309 313 312 311 311 309 309 308 309 305 302 302 299 298 297 296 296 296 295 295 295 295 293 293 293 293 292 292 292 291 290 290 288 287 286 286 285 284 284 284
308 308 305 306 308 307 309 311 311 311 310 311 308 305 303 302 299 298 297 296 295 295 294 294 294 294 293 293 293 292 292 292 292 292 289 287 287 286 286 285 284 284 283 283
306 307 305 306 307 309 310 311 309 309 308 309 309 306 304 301 300 299 298 296 295 294 293 293 293 293 293 293 292 292 292 292 291 291 288 286 286 285 285 284 283 283 283 283
306 306 306 306 305 308 308 307 307 306 307 307 308 307 305 302 300 298 298 297 295 294 293 293 293 293 293 293 292 291 291 292 290 287 287 286 286 285 284 284 284 283 283 283
308 306 306 306 307 305 306 306 306 306 306 305 306 305 305 302 300 298 298 296 295 294 294 294 294 293 293 293 293 293 292 290 287 286 286 285 284 284 284 284 284 283 283 282
306 307 307 307 305 305 306 304 304 304 304 304 304 304 305 302 300 299 298 296 295 294 294 294 294 293 294 293 293 293 292 289 286 286 285 284 284 285 285 284 283 282 282 281
304 305 307 306 308 303 303 303 303 302 301 301 301 303 304 304 301 299 297 298 297 296 295 294 294 294 294 293 292 293 292 290 287 286 285 285 285 285 285 284 284 283 282 283
304 303 304 301 300 301 301 301 302 300 299 299 300 300 302 303 301 300 301 299 297 296 295 295 294 294 294 293 293 293 292 290 287 286 286 286 286 285 285 284 282 282 281 281
300 300 300 301 301 300 300 300 301 299 298 298 298 299 299 300 301 302 301 299 296 295 295 295 294 295 295 294 294 293 293 291 288 287 286 286 285 285 284 282 282 281 281 281
300 300 300 300 299 300 300 297 297 297 297 297 297 298 299 299 298 299 300 299 298 298 297 296 296 295 296 295 295 294 293 291 288 287 286 285 285 284 283 282 282 282 282 281
298 298 299 299 298 298 297 297 297 298 296 295 294 294 294 296 295 297 298 299 298 297 297 297 297 296 296 296 295 294 293 292 288 287 286 285 285 284 283 282 282 282 282 281
298 297 297 296 296 296 297 297 296 296 295 292 291 292 293 296 296 296 297 297 296 295 298 297 297 296 296 296 295 294 293 291 289 286 286 285 284 284 283 282 282 282 282 281
296 295 295 294 294 294 294 293 293 294 294 294 292 291 291 291 292 293 294 294 295 296 296 296 295 295 296 296 296 295 292 290 288 286 285 285 284 284 283 283 283 282 282 282
295 294 294 293 292 291 291 290 290 289 289 290 291 291 291 290 290 290 291 291 293 293 293 293 293 293 294 294 294 292 291 288 287 285 285 285 285 284 284 283 283 282 282 282
293 292 292 292 292 290 289 289 289 289 288 287 287 287 289 289 290 290 290 289 290 290 291 291 291 292 292 292 292 290 290 289 288 287 286 285 285 286 284 285 283 283 282 282
290 289 289 289 289 289 286 284 286 288 287 287 286 286 285 286 286 287 288 289 289 290 290 290 290 290 290 289 289 289 289 288 287 287 286 285 285 286 286 284 285 285 283 282
288 287 287 286 288 285 283 283 285 285 285 286 286 286 286 286 286 286 286 285 286 286 287 289 289 289 289 289 289 288 288 287 287 286 286 286 285 286 286 285 286 286 282 282
287 286 285 285 284 283 283 283 284 284 284 284 284 283 284 284 285 285 285 285 285 285 285 286 286 287 288 288 288 288 288 287 287 286 285 285 285 285 285 286 286 286 284 282
284 284 284 283 283 283 282 282 282 283 283 283 283 283 283 283 283 284 285 285 285 285 285 285 285 285 286 287 287 287 287 287 287 286 285 285 285 284 284 285 285 284 285 283
284 284 283 282 283 283 282 282 283 283 282 282 282 283 282 282 282 282 283 284 284 284 284 284 284 284 284 285 286 286 286 286 286 286 285 285 285 285 285 284 283 284 285 282

GFSNGP_925_thetae_075.txt.gz
Theta_e
307 306 309 309 310 313 315 316 314 315 310 310 307 307 308 309 309 309 308 306 305 302 300 301 300 300 299 299 298 298 297 296 296 295 296 296 295 294 294 294 294 293 292 292
303 308 309 309 309 310 313 314 315 314 309 308 307 305 306 308 310 310 308 307 304 302 300 300 300 299 299 298 297 297 296 295 294 295 294 294 293 293 293 293 293 292 293 292
305 308 307 307 309 308 310 309 311 311 312 308 307 306 306 305 307 309 309 306 304 302 300 300 300 300 299 298 297 296 295 294 294 294 293 292 292 291 292 292 292 292 292 292
303 305 307 307 305 306 308 309 308 309 308 308 307 306 305 304 304 306 307 305 302 301 300 300 300 299 298 297 296 295 294 294 293 293 292 291 291 290 290 290 291 291 289 288
308 307 305 308 307 308 308 309 306 308 308 306 307 308 308 305 306 306 306 304 302 302 301 300 300 299 297 296 295 294 294 294 293 292 291 291 290 290 289 289 287 288 287 287
304 309 310 305 309 306 308 310 310 306 307 306 307 309 308 307 307 306 305 303 301 300 300 299 298 298 296 295 294 294 294 293 292 292 291 291 289 288 287 287 287 287 286 287
309 312 308 304 304 307 313 309 311 307 305 305 308 306 306 304 301 301 299 298 299 298 298 298 297 296 295 294 294 294 293 292 292 292 291 291 289 288 287 287 287 287 286 285
311 313 311 305 309 311 309 310 310 308 305 305 307 306 304 301 299 298 297 296 297 296 296 296 296 296 295 294 294 294 293 292 292 291 291 289 288 287 287 287 286 285 284 284
308 308 305 304 308 308 308 310 311 311 310 306 307 306 303 301 300 298 297 296 296 296 295 295 295 295 294 293 293 293 292 292 291 291 289 290 288 287 286 285 284 284 283 283
306 306 305 304 304 306 308 310 309 309 309 309 310 305 303 301 299 298 297 296 296 295 294 294 294 294 294 292 292 293 292 292 292 291 290 287 286 286 286 285 284 283 282 283
304 304 305 305 303 306 308 308 307 306 307 307 307 306 305 302 299 298 298 297 296 295 294 294 294 294 293 293 293 292 292 292 292 291 290 287 286 286 285 285 284 283 283 283
306 304 305 305 306 303 306 307 305 306 306 305 305 306 305 304 302 300 298 297 296 295 294 294 294 293 293 294 293 292 291 291 291 291 288 286 286 285 284 284 284 284 283 283
305 303 305 307 306 304 305 305 304 304 304 305 303 304 305 304 302 300 299 297 296 296 295 295 294 294 293 294 293 293 290 290 291 289 286 286 285 284 284 284 285 284 283 282
304 305 308 306 307 304 304 303 303 301 301 301 301 301 303 303 302 300 299 299 298 297 296 295 295 294 294 294 293 293 293 293 292 287 286 286 285 284 285 285 284 284 283 284
303 303 304 302 300 300 300 300 301 300 299 299 299 299 300 300 301 301 301 300 299 297 296 296 295 295 295 294 293 292 293 292 291 288 286 286 285 285 284 285 285 284 284 282
301 301 300 302 300 299 299 300 301 299 298 297 297 298 298 298 298 300 301 300 296 295 296 296 295 295 295 294 294 293 292 292 292 290 286 285 285 285 285 285 285 284 282 282
301 301 300 300 299 298 299 297 297 297 296 296 296 296 295 296 297 298 298 299 299 298 298 297 297 296 295 295 294 293 292 292 292 291 288 286 285 285 285 285 284 283 283 283
298 298 299 300 298 297 297 297 297 297 295 295 294 293 292 293 293 295 297 297 298 297 297 297 298 297 296 295 295 294 293 292 292 290 289 286 286 285 285 285 284 283 283 283
297 297 296 296 297 297 297 297 296 296 295 293 293 291 291 292 293 294 295 295 295 295 298 298 298 297 296 296 295 294 293 292 291 289 289 287 286 285 285 284 284 283 283 283
296 295 295 295 294 295 294 292 292 292 292 293 293 292 291 290 290 290 292 293 294 294 295 295 296 296 296 296 295 294 293 291 290 288 287 286 286 284 285 284 284 283 283 283
296 295 295 294 292 292 291 290 290 289 288 288 289 290 290 290 291 290 290 290 291 291 291 292 292 293 293 294 294 293 293 291 289 288 287 287 286 285 284 285 285 283 283 283
293 293 293 292 291 290 289 289 289 289 288 287 287 286 287 287 287 288 290 289 289 290 291 291 291 291 291 292 292 292 291 290 289 288 287 287 287 286 286 286 286 287 287 286
291 290 290 290 289 289 286 284 286 287 287 287 286 286 286 285 285 286 287 286 286 286 288 289 290 290 290 290 290 290 289 289 288 288 288 287 287 286 286 286 286 286 287 287
288 287 287 287 287 286 283 283 284 284 284 285 285 285 284 285 286 286 286 285 285 285 285 286 286 288 289 289 289 289 289 288 288 287 287 287 286 286 286 285 285 286 286 287
287 286 285 285 285 283 283 283 283 284 283 283 283 283 283 283 283 284 285 285 285 285 285 285 285 285 286 287 288 288 288 288 287 287 286 286 285 285 285 285 284 284 285 286
285 284 284 284 283 283 283 282 282 283 283 282 283 283 283 282 282 283 283 283 284 284 285 285 285 284 285 285 286 285 286 287 287 286 286 286 285 285 284 284 284 284 283 284
284 284 283 282 283 282 282 282 282 282 283 282 282 283 283 282 281 281 282 282 282 282 283 284 284 284 284 284 284 284 284 285 285 285 285 285 285 285 285 284 284 284 283 284

GFSNGP_925_thetae_078.txt.gz
Theta_e
309 307 310 311 313 314 316 316 317 312 310 310 310 307 306 306 308 309 307 306 304 303 301 301 300 300 300 300 299 298 298 297 296 296 296 296 295 295 294 294 293 292 292 292
304 307 308 310 308 309 313 314 315 314 314 311 308 305 305 306 309 310 308 307 304 302 301 300 300 300 299 299 298 297 297 296 295 295 295 294 294 293 293 293 293 293 293 293
307 307 306 306 308 308 308 310 312 315 313 309 308 307 306 306 308 310 309 307 305 303 301 301 301 301 299 299 298 297 296 295 294 294 294 293 292 292 292 292 292 292 292 292
304 305 308 305 305 306 307 308 309 309 310 308 308 306 305 303 306 307 308 307 305 303 302 301 301 300 299 298 297 296 295 294 294 294 293 292 292 291 291 291 291 290 289 288
312 308 305 307 305 306 307 308 305 307 308 307 305 307 306 304 302 304 304 305 305 304 303 301 301 300 299 296 296 295 294 294 294 293 292 291 291 290 290 291 289 288 287 288
306 311 310 303 309 305 306 309 308 306 305 305 305 308 308 306 304 304 305 305 303 302 301 301 299 299 298 296 295 295 294 294 294 293 292 291 290 290 289 288 287 287 287 287
311 312 307 304 303 305 312 308 310 308 306 304 305 305 304 304 304 303 301 300 301 300 300 300 299 298 296 295 295 295 294 293 293 292 291 291 290 288 287 287 286 286 285 285
311 313 311 303 307 309 307 308 310 309 305 304 305 305 305 302 300 298 297 297 298 298 298 298 298 297 296 295 295 294 294 293 292 292 291 290 289 288 286 286 287 286 285 284
307 307 304 303 307 306 305 308 310 310 308 304 305 306 303 301 298 297 297 297 297 297 296 296 296 297 295 295 294 293 293 292 292 291 291 290 289 287 286 286 285 284 283 283
307 305 304 302 302 303 307 308 309 309 309 307 307 304 303 300 298 298 297 296 296 295 294 294 295 295 296 295 293 293 292 292 292 291 291 290 289 287 286 285 284 284 283 283
303 303 303 304 302 303 304 307 307 306 307 308 307 306 304 302 299 298 297 297 296 295 295 294 294 294 294 294 293 292 292 292 291 291 290 290 288 286 286 286 285 284 284 283
305 303 304 304 305 302 305 306 305 305 305 305 305 306 305 304 302 300 298 297 296 296 295 295 294 294 294 294 293 292 292 292 292 291 291 289 287 286 285 285 284 284 283 283
303 302 302 306 306 304 304 304 303 303 304 304 302 303 304 303 303 301 300 298 297 297 296 296 295 294 294 294 294 293 292 292 292 292 291 290 287 285 284 284 284 284 285 284
304 305 308 306 307 304 304 303 302 300 300 300 300 300 302 302 302 301 300 300 299 298 297 296 295 295 295 294 294 293 293 292 291 291 291 290 286 285 285 284 284 285 285 285
302 303 303 302 300 300 299 299 300 299 298 298 298 298 298 298 299 300 301 301 299 297 297 296 295 295 296 294 294 293 293 292 291 291 291 289 286 285 285 284 284 284 284 284
301 301 302 303 301 299 300 300 299 298 297 296 296 297 297 297 297 298 298 300 297 296 297 296 296 296 296 295 294 294 293 293 292 292 291 288 286 285 284 284 284 284 284 285
302 303 301 301 299 300 299 296 296 296 295 295 295 294 294 294 294 295 297 298 298 298 298 297 298 297 296 296 295 294 293 293 291 291 291 290 287 285 285 284 284 284 285 286
298 298 299 300 298 297 296 295 296 297 295 294 293 292 291 291 291 292 294 295 296 297 297 298 298 297 296 296 295 294 293 292 292 291 289 289 288 286 285 285 285 284 285 285
296 296 296 296 296 296 297 296 296 295 295 294 294 292 291 291 290 290 291 292 293 293 296 296 297 296 296 296 295 294 293 293 292 291 290 288 288 287 286 285 285 284 285 284
295 295 295 295 295 295 293 292 292 291 290 292 293 293 292 291 291 290 290 291 290 290 292 293 293 295 295 295 295 294 293 293 292 290 289 288 287 287 285 285 285 285 284 284
296 295 295 294 293 292 291 290 290 289 288 288 288 287 287 288 288 289 290 290 289 290 291 291 291 292 292 293 294 293 293 292 291 290 289 288 288 287 287 286 286 285 284 284
294 294 293 292 291 290 288 288 289 288 288 287 286 287 286 286 286 288 288 286 286 286 288 289 290 291 291 291 291 292 291 291 290 290 289 288 288 287 287 287 286 286 286 286
291 290 290 290 290 289 285 284 286 286 287 286 286 286 285 285 285 285 286 286 285 286 286 286 286 289 289 290 290 290 290 289 289 289 288 288 287 287 287 287 287 287 286 286
288 288 287 287 287 286 283 283 284 284 284 284 284 283 283 283 284 285 284 284 285 285 285 285 285 286 287 288 288 288 288 288 288 288 288 287 287 287 286 286 286 286 286 285
287 287 286 285 285 284 283 283 283 283 283 283 283 283 283 283 282 283 283 283 284 284 284 285 285 285 285 285 286 287 286 287 287 287 287 287 286 286 286 285 285 285 284 284
286 285 284 284 284 283 283 282 282 283 283 283 283 283 283 282 282 282 282 282 282 282 283 283 284 284 284 284 284 283 283 284 285 285 285 286 286 285 285 285 284 284 284 283
285 284 283 283 284 283 283 282 281 282 283 282 282 282 283 282 281 281 281 281 281 281 281 281 282 282 283 283 283 283 283 283 283 283 283 284 283 284 284 284 284 283 283 283

GFSNGP_925_thetae_084.txt.gz
Theta_e
313 311 313 314 314 315 317 317 317 315 314 313 312 313 312 312 310 311 314 313 313 313 312 309 307 306 304 304 302 301 300 300 300 299 299 298 297 297 296 295 295 295 294 294
315 314 313 313 313 314 314 315 315 314 315 313 312 312 312 312 311 311 312 314 313 313 312 310 308 306 304 303 302 300 300 300 299 298 298 297 296 295 295 294 294 294 294 294
317 312 312 315 312 312 313 313 314 317 315 313 313 312 313 313 312 313 313 312 313 313 312 310 309 307 304 303 301 300 300 299 298 298 297 296 295 294 294 293 293 293 293 293
314 310 315 310 306 309 311 311 312 312 312 312 312 311 311 311 311 311 311 310 312 313 312 311 309 306 304 302 300 299 299 298 297 297 296 295 294 293 293 293 293 293 293 292
315 314 311 311 307 307 309 310 309 310 310 310 309 308 309 309 309 311 311 310 311 312 312 310 307 305 303 300 300 299 298 298 297 296 296 294 293 292 292 292 292 292 291 290
313 314 313 308 309 306 307 312 309 308 309 311 309 313 314 308 308 308 308 308 309 310 309 308 306 304 302 300 299 298 298 297 296 296 295 293 293 292 292 291 290 289 288 288
313 314 312 309 308 307 310 312 311 312 313 312 310 310 308 307 308 306 306 306 307 306 307 306 303 302 301 300 299 298 297 296 296 295 294 294 293 292 291 290 289 288 288 287
313 314 313 306 307 310 310 310 311 313 312 311 309 307 307 306 306 305 304 302 303 304 303 301 300 300 300 299 298 297 296 295 295 294 293 293 292 291 290 289 288 287 286 286
312 311 308 306 309 308 309 310 311 313 312 308 308 308 307 306 305 304 303 302 302 302 300 299 299 300 299 298 297 296 295 295 294 293 292 292 291 290 288 288 288 287 286 285
309 309 309 307 306 307 308 309 310 311 311 306 307 308 307 305 304 303 302 302 300 300 300 299 298 298 299 297 296 296 296 295 294 292 292 291 290 289 289 288 288 287 286 285
308 307 307 307 307 307 306 305 307 309 310 311 310 309 307 306 304 302 301 300 299 300 300 299 297 297 296 296 295 296 295 294 293 291 291 290 290 289 289 288 287 287 286 285
309 305 305 307 306 305 306 306 306 309 308 307 308 309 307 307 304 302 301 298 298 298 297 297 297 296 296 295 295 295 294 294 292 291 291 290 289 289 289 288 287 287 285 285
304 303 303 305 304 306 305 305 307 306 307 307 304 306 306 306 304 303 301 299 299 299 297 297 296 295 295 294 294 294 293 293 292 291 291 290 289 289 289 288 287 286 286 285
297 301 305 306 307 306 306 305 304 302 302 302 302 302 303 304 302 302 301 300 299 299 298 297 296 296 296 295 294 294 293 293 292 291 291 291 290 290 289 288 286 286 286 286
297 298 303 303 303 303 302 303 303 302 300 300 299 300 300 301 301 299 298 298 299 298 298 297 296 296 296 295 294 294 294 293 292 291 291 291 291 290 288 286 286 286 285 286
300 302 303 303 304 302 302 302 303 302 301 300 299 298 296 296 296 296 296 296 298 299 298 297 297 298 297 296 295 294 294 294 293 292 291 290 290 289 288 288 287 286 285 285
299 300 303 303 302 302 303 301 302 301 299 299 297 295 294 294 295 295 294 294 295 295 295 295 296 296 296 296 295 294 294 293 293 292 291 291 290 289 289 289 288 286 286 285
299 300 299 300 302 300 298 298 298 297 297 294 294 293 293 293 293 292 291 291 292 294 293 293 294 295 295 295 295 294 293 293 293 292 291 291 290 290 289 288 287 286 286 286
297 297 297 298 299 299 298 298 297 296 295 295 296 294 293 292 291 291 291 291 291 292 290 290 291 292 294 295 294 294 293 292 292 292 292 291 290 289 289 288 288 287 286 287
297 296 296 295 295 295 294 294 292 291 290 291 291 290 290 289 287 289 291 290 287 288 288 290 290 291 291 292 293 293 293 292 292 292 291 291 290 290 289 289 288 288 287 287
296 296 295 293 292 291 291 291 291 290 288 288 288 288 287 287 287 289 290 291 286 286 286 286 288 289 290 291 291 292 292 292 292 291 291 291 291 290 289 289 288 288 287 287
293 293 292 292 291 289 287 288 288 288 287 287 287 286 286 286 286 287 286 286 285 285 285 285 286 287 288 289 289 290 290 290 290 290 290 290 290 289 289 289 288 288 287 287
290 291 291 291 291 288 285 285 285 286 286 285 285 284 284 284 285 286 287 284 284 285 285 285 285 286 286 286 286 287 288 288 288 288 288 288 288 288 288 288 288 287 287 287
290 288 287 287 287 286 285 283 284 284 284 284 284 283 283 284 284 284 283 282 282 283 283 283 284 284 285 285 284 285 285 286 286 286 287 287 287 287 287 286 286 286 286 286
290 287 286 285 285 285 284 283 283 283 283 283 283 283 283 283 282 282 282 282 282 282 282 282 282 282 283 283 283 283 283 283 283 284 284 284 285 285 285 285 285 285 285 285
289 287 287 286 285 285 284 283 282 282 282 283 283 283 283 283 282 282 281 281 281 281 281 281 281 281 281 281 281 281 281 282 282 282 282 282 282 282 283 283 283 283 283 283
288 286 286 285 285 285 284 284 282 282 282 283 283 283 282 283 282 281 281 281 281 281 281 281 281 281 280 280 280 280 280 280 280 280 280 280 280 280 281 281 281 281 281 281

GFSNGP_925_thetae_087.txt.gz
Theta_e
315 312 314 316 316 315 318 318 319 317 316 314 314 313 313 314 313 312 312 314 314 314 314 313 312 310 309 308 306 304 304 304 303 303 302 302 301 300 298 298 297 297 297 296
317 316 314 315 314 315 315 315 316 316 317 314 313 313 313 313 313 313 312 312 314 314 314 313 312 310 309 307 305 304 304 303 303 302 301 300 300 298 297 296 296 296 295 295
319 316 315 317 315 315 315 314 315 318 315 314 313 313 313 313 313 312 312 313 313 314 314 314 312 311 308 307 305 304 304 303 302 301 300 299 298 297 296 295 295 294 294 294
317 314 318 312 310 313 314 313 313 313 312 312 312 312 311 311 311 311 312 312 313 313 314 314 313 311 309 307 305 303 303 303 301 301 300 298 297 296 294 294 294 293 293 293
316 314 311 311 308 309 310 310 310 311 311 310 310 310 311 311 311 311 311 311 312 311 313 314 313 311 309 306 305 303 303 302 301 300 299 297 295 294 294 293 293 293 293 292
317 317 312 310 308 307 309 311 311 310 311 313 313 315 315 310 309 309 309 310 310 311 312 313 313 310 307 305 304 303 302 301 300 299 298 296 294 294 293 293 292 292 291 290
315 314 312 310 309 309 310 313 313 313 314 315 314 313 311 309 308 308 307 309 308 311 313 313 310 308 306 305 304 303 301 299 299 298 297 295 294 293 293 292 290 290 289 289
315 315 313 309 309 310 311 312 311 313 314 314 311 310 308 309 308 307 307 305 307 309 309 308 306 306 305 304 302 301 299 298 298 297 295 294 293 292 291 291 290 290 289 288
312 311 309 308 310 309 309 310 311 314 314 313 310 310 310 309 307 307 306 305 305 306 303 303 303 304 304 302 300 299 298 298 297 296 294 292 292 291 290 290 289 289 288 287
310 309 309 309 308 308 309 310 311 311 313 311 310 310 310 308 307 306 305 305 304 304 304 302 302 302 303 301 299 298 298 297 296 295 293 291 292 291 290 289 289 289 287 286
309 309 309 309 308 308 308 308 307 308 311 312 313 312 310 309 307 305 304 303 303 304 303 302 301 301 300 299 299 298 298 297 296 294 293 291 291 291 290 290 290 290 288 287
305 307 308 308 307 307 307 307 307 308 310 310 310 311 309 309 307 304 304 302 301 300 301 300 299 299 298 298 298 298 298 296 295 293 292 291 290 290 289 290 290 289 288 287
299 301 302 304 306 307 308 308 307 309 309 308 307 308 308 308 306 304 303 301 301 301 300 299 300 299 298 297 296 296 296 295 294 293 292 291 290 290 289 290 290 289 288 287
299 299 300 306 307 305 306 307 306 306 305 305 304 304 305 305 304 304 303 302 302 301 300 299 297 296 297 297 297 296 295 295 294 293 292 291 291 290 290 290 290 289 289 288
297 299 302 300 304 305 304 305 305 304 302 302 302 302 303 303 302 301 300 299 300 300 300 299 298 298 296 296 295 295 294 294 294 293 292 292 291 291 290 290 290 288 287 287
298 301 303 303 305 305 304 304 306 305 304 303 302 301 299 299 298 298 297 297 299 300 299 299 299 298 296 295 295 294 294 294 294 293 292 291 291 290 290 289 289 288 287 286
298 300 299 299 304 304 304 304 305 304 302 302 299 297 297 297 297 297 295 294 294 296 296 295 295 295 295 295 295 294 294 294 293 293 293 292 291 290 290 289 290 290 289 288
297 298 300 300 301 303 301 300 300 300 300 297 296 296 296 295 295 294 293 293 293 294 292 292 292 292 293 294 294 294 294 293 293 293 292 292 291 291 290 290 290 290 289 288
298 298 297 298 299 300 300 299 298 297 297 297 298 297 295 293 292 292 292 292 292 292 290 290 291 291 291 292 293 293 293 293 293 293 292 292 291 290 290 290 289 289 289 289
297 297 296 295 295 296 295 295 294 292 291 292 292 292 292 289 288 289 292 290 288 287 288 287 288 289 289 291 291 292 292 292 292 292 292 292 291 291 290 290 289 289 288 288
296 295 294 294 292 292 292 292 292 291 289 289 290 289 289 288 288 289 291 292 287 286 287 286 287 287 288 289 289 290 291 291 291 291 291 291 291 291 290 290 290 289 289 288
293 293 292 292 291 289 288 289 289 289 289 288 288 287 287 286 287 288 287 286 286 285 286 286 286 286 287 287 287 288 288 289 289 289 290 290 290 290 290 289 289 289 288 288
290 290 291 292 292 289 286 286 286 287 287 286 286 285 285 285 285 287 287 285 284 284 284 285 285 285 285 285 285 286 287 287 287 287 287 288 288 288 288 288 288 288 288 288
291 291 288 287 288 287 287 285 284 284 284 284 284 284 284 285 285 285 283 283 283 282 283 282 283 283 283 284 284 284 284 284 285 285 286 286 286 286 287 287 287 287 286 286
292 291 288 287 287 287 286 284 283 283 284 284 283 283 283 283 283 283 282 282 282 282 282 282 282 282 282 282 282 282 282 282 282 283 283 283 283 284 284 284 285 285 285 285
292 290 290 289 287 286 285 284 284 284 283 283 283 283 283 283 283 282 282 282 282 281 281 281 281 281 281 281 281 281 281 281 281 281 281 281 281 281 281 282 282 282 282 282
290 290 288 287 287 287 285 285 284 284 284 283 283 283 283 282 283 282 282 281 281 281 281 281 281 281 281 280 280 280 280 280 279 279 279 279 280 280 280 280 280 279 280 280

GFSNGP_925_thetae_090.txt.gz
Theta_e
314 314 315 316 316 317 318 318 317 316 316 314 313 312 311 309 309 311 310 311 311 310 308 311 311 311 310 309 308 307 306 305 304 304 303 302 301 300 300 299 298 298 297 297
316 316 316 316 315 315 315 316 317 316 316 313 313 312 312 310 310 310 311 310 309 311 310 310 311 310 309 308 306 305 304 304 304 303 302 302 301 300 299 298 297 297 297 297
317 315 313 316 314 314 314 314 315 317 314 312 312 312 311 310 310 310 310 309 309 309 311 312 311 310 309 307 306 304 304 304 303 302 301 301 300 299 297 296 296 296 296 295
317 315 316 313 309 312 314 313 313 313 312 312 311 310 309 308 308 308 308 309 309 309 312 313 313 311 309 307 305 304 304 303 303 302 301 300 298 297 296 296 296 295 295 294
316 315 312 309 308 311 312 311 310 310 310 309 309 309 309 308 307 307 306 306 308 311 311 313 313 311 309 307 305 304 304 303 302 301 300 299 297 296 295 295 295 294 294 293
314 315 316 310 307 307 308 309 310 308 310 313 311 312 311 309 307 306 307 307 308 310 311 313 313 311 309 306 305 304 303 303 301 301 300 298 296 295 294 294 294 293 293 292
312 314 312 308 307 308 310 313 313 313 314 314 313 310 308 307 307 307 306 305 307 310 311 312 313 310 308 306 304 303 303 302 301 300 299 298 296 294 293 293 293 292 292 291
311 312 314 308 308 309 310 310 311 312 314 313 311 309 308 308 307 306 305 305 307 309 308 311 310 309 307 305 304 303 302 301 300 299 298 297 295 293 293 292 291 290 290 289
314 313 308 307 308 307 307 307 310 312 313 312 310 309 309 307 305 304 304 304 305 304 304 305 306 306 305 303 303 302 300 299 298 297 296 295 293 292 292 291 290 290 289 289
308 309 308 307 306 305 305 307 308 309 310 311 309 310 309 306 304 303 304 303 304 303 302 302 303 304 304 302 301 300 299 298 297 296 295 293 292 292 292 290 289 290 289 288
305 304 307 307 304 304 305 305 306 307 307 311 312 310 309 306 304 303 302 303 303 303 302 302 302 302 301 300 299 298 298 297 296 296 294 293 292 292 292 292 291 290 289 288
300 300 303 304 300 304 306 307 305 306 308 309 310 308 307 305 304 303 302 301 301 301 301 300 300 300 299 299 299 299 298 297 296 295 294 293 291 291 291 291 291 291 290 288
298 298 298 298 301 303 304 305 305 306 308 306 306 306 306 304 304 304 302 301 301 301 300 300 300 299 299 299 298 298 298 297 296 295 293 292 291 290 290 291 290 291 291 289
296 296 299 299 300 299 304 304 304 303 303 304 304 305 305 303 302 301 300 301 301 301 300 299 298 297 297 297 297 297 297 297 296 295 294 293 291 291 291 290 290 291 291 290
297 295 296 299 301 303 304 303 304 302 301 301 302 302 302 301 300 299 299 299 300 300 300 299 299 298 298 297 296 297 296 296 295 295 294 293 292 291 291 291 291 291 291 290
297 297 298 301 302 303 303 302 303 303 301 301 300 298 298 298 298 297 296 296 297 297 297 297 297 297 297 296 295 295 295 295 294 294 293 293 292 291 291 291 291 291 291 289
297 297 297 296 299 301 302 301 301 301 300 298 296 296 297 297 296 295 294 294 294 294 294 293 293 293 294 295 295 295 294 294 294 294 293 293 293 292 291 291 290 290 290 290
297 297 298 298 299 300 301 299 299 299 297 296 296 296 295 295 294 294 293 293 293 293 291 291 291 292 292 293 293 294 294 294 293 293 293 293 292 292 291 291 290 290 290 291
298 297 297 297 298 299 299 298 297 297 296 297 297 295 293 291 291 291 292 292 290 291 289 288 288 290 290 291 291 292 292 293 293 293 292 292 292 291 291 290 290 290 290 290
297 296 296 294 294 294 294 293 292 292 291 292 292 292 290 289 289 290 291 289 287 287 287 287 287 287 288 288 289 289 290 291 291 292 292 292 292 291 291 291 290 290 290 289
296 293 292 292 292 292 292 292 292 291 290 289 289 289 288 288 288 288 290 289 287 286 286 286 287 286 287 287 287 287 288 289 289 290 290 290 291 291 290 290 290 290 290 289
292 293 292 292 291 289 287 288 288 289 288 288 287 286 286 286 286 287 287 286 285 285 285 285 285 285 286 285 285 285 286 286 287 287 288 288 288 289 289 289 289 289 289 289
290 289 289 290 290 289 287 286 286 286 286 286 285 285 285 285 285 286 286 285 283 283 283 283 283 284 285 284 284 284 284 285 285 285 285 286 287 287 287 287 287 287 287 287
291 291 291 288 287 287 286 286 284 285 285 285 284 284 284 285 285 285 284 283 283 282 282 282 282 282 283 282 282 282 282 282 283 283 283 284 284 284 284 285 285 285 285 286
292 292 291 291 288 287 287 286 285 284 284 284 284 284 284 284 284 284 283 283 282 282 282 282 282 282 282 282 281 281 281 281 281 282 281 281 281 281 281 281 281 282 283 283
292 292 292 292 291 291 289 286 285 285 284 284 284 284 284 283 283 283 283 282 282 282 282 282 282 281 281 281 281 281 281 280 280 280 280 279 279 279 280 280 280 280 280 280
290 290 290 290 290 290 290 287 285 285 285 285 284 284 283 283 283 283 283 282 282 282 282 281 281 281 281 281 281 280 280 279 279 279 278 278 278 278 278 278 278 278 278 278

GFSNGP_925_thetae_096.txt.gz
Theta_e
311 312 313 314 316 316 317 315 313 312 312 312 307 308 308 308 308 307 307 308 307 307 305 307 309 311 312 312 312 311 310 309 309 310 309 310 307 303 302 301 301 301 301 300
305 310 312 313 315 316 316 316 315 314 314 311 310 308 309 309 308 307 305 306 308 307 306 307 308 310 311 312 311 311 310 310 309 307 305 304 303 302 301 301 301 300 299 298
301 307 312 310 310 314 314 314 316 317 315 313 314 312 310 308 307 307 306 305 304 306 307 308 309 310 310 310 310 310 309 307 306 304 304 303 302 301 301 300 299 298 298 297
298 311 315 312 309 312 314 313 313 313 313 312 312 311 309 307 307 305 305 305 304 303 305 308 310 309 310 310 309 307 306 306 305 304 303 302 301 301 300 299 298 298 297 297
305 310 312 310 308 312 312 312 310 310 311 311 308 308 307 306 306 307 306 304 305 306 306 305 308 310 309 308 307 306 305 305 304 303 303 302 301 300 299 298 298 297 297 296
306 311 312 310 305 304 307 309 310 308 307 308 306 308 306 307 306 305 305 305 304 304 305 306 307 309 308 307 306 305 305 305 304 303 302 301 301 300 299 297 296 296 295 295
300 303 308 307 305 305 308 305 309 311 311 311 310 307 307 305 306 304 304 303 304 305 305 307 306 308 306 305 305 307 306 305 304 303 302 302 300 299 298 296 295 294 295 294
307 306 308 306 306 307 304 302 306 310 312 311 309 307 306 306 304 302 301 303 303 303 304 306 307 307 305 305 306 306 305 304 303 303 302 301 300 298 296 296 293 293 293 293
307 305 307 305 305 302 303 304 304 304 311 310 308 308 307 305 304 302 301 302 302 302 302 304 305 305 304 304 305 305 304 303 302 302 301 300 298 297 295 294 293 293 292 292
305 303 302 303 304 303 302 302 303 304 303 309 308 307 306 303 302 301 301 301 302 302 301 301 303 304 305 304 304 304 303 302 301 300 299 298 297 296 295 293 292 292 291 291
299 297 300 300 299 301 302 301 302 303 303 303 309 307 304 304 304 301 300 300 301 301 300 300 302 303 303 303 303 302 301 300 299 299 298 297 296 296 295 294 293 292 292 292
297 296 296 296 296 297 300 302 302 302 303 303 307 307 306 303 301 301 300 300 300 300 300 300 301 301 301 301 301 301 299 298 298 297 297 296 296 294 294 293 293 292 291 291
295 295 295 294 295 295 300 301 302 302 302 302 304 305 304 302 300 301 300 299 299 299 299 299 299 299 299 299 299 299 299 298 298 297 297 296 295 293 293 294 292 292 292 292
297 298 297 296 295 294 295 300 302 302 302 301 303 304 303 301 300 299 299 299 299 299 298 298 297 297 297 299 298 298 298 298 298 297 297 296 295 294 293 292 292 292 292 292
297 296 296 294 294 297 297 301 303 303 301 300 301 303 301 299 298 296 297 299 298 298 297 297 296 296 296 296 296 296 297 297 297 297 296 296 294 294 293 292 291 291 292 292
297 297 293 294 294 296 296 301 303 303 301 299 298 298 298 297 295 294 295 296 296 294 293 293 293 293 293 295 295 295 295 295 295 295 295 294 294 293 292 292 291 291 291 291
298 297 295 294 296 298 299 300 300 302 299 297 296 296 296 294 293 293 293 294 293 292 291 291 291 292 292 292 293 294 294 294 294 294 294 294 293 293 292 292 291 291 291 292
297 297 297 296 298 298 300 298 297 297 296 295 295 295 294 294 293 292 292 292 291 290 289 288 288 289 289 290 291 292 293 293 293 293 293 293 293 292 292 292 291 291 291 291
297 297 297 296 295 296 297 296 295 295 295 296 295 293 291 291 291 291 291 290 290 288 287 287 288 288 288 288 289 289 290 291 291 291 292 292 292 292 291 291 291 291 290 290
297 296 296 295 294 293 294 292 292 292 292 292 292 291 289 288 289 290 289 287 287 287 286 286 287 286 286 286 286 287 288 288 289 289 289 289 290 290 290 290 290 290 290 289
295 294 293 293 292 292 292 291 291 291 290 290 290 289 288 287 287 288 287 287 286 286 286 286 285 285 286 285 285 285 285 286 286 286 286 286 287 287 287 287 287 287 287 287
293 294 293 292 292 291 288 286 287 288 287 287 286 286 286 285 286 287 287 287 285 285 284 284 284 285 285 284 284 284 284 284 284 284 283 283 283 284 284 284 284 285 285 285
291 289 288 287 287 287 287 286 285 285 285 286 285 285 284 285 284 286 286 285 284 283 283 283 283 284 283 282 282 282 282 282 282 282 282 282 282 282 281 281 282 282 281 281
290 290 289 290 290 289 287 287 286 285 284 284 284 284 284 284 284 285 284 284 283 283 283 282 282 283 282 282 282 282 281 281 281 281 280 280 280 279 279 279 279 279 279 280
291 291 291 291 290 291 292 292 290 289 286 285 285 284 284 284 284 284 285 283 283 282 282 282 282 282 282 282 281 281 281 281 280 280 279 279 279 278 278 278 278 277 278 278
291 291 290 290 290 290 290 290 289 290 289 288 287 285 285 284 284 283 283 283 283 282 282 282 282 282 282 281 281 281 280 280 279 279 278 278 277 277 277 277 277 277 277 277
287 286 286 285 286 287 287 287 287 288 287 287 286 286 286 285 284 283 283 283 283 282 282 282 282 281 281 281 281 280 280 279 279 278 278 277 278 277 277 277 277 277 277 277

GFSNGP_925_thetae_099.txt.gz
Theta_e
308 309 311 311 314 316 315 315 312 311 310 310 307 307 307 307 307 308 308 308 307 306 305 306 308 310 311 312 312 312 312 311 310 309 309 308 307 308 308 306 304 304 303 302
298 305 309 311 311 313 315 316 316 313 313 309 310 307 307 308 308 308 306 304 305 306 305 306 307 309 310 311 311 311 311 311 310 309 307 307 307 305 303 302 303 302 301 300
297 302 305 306 309 310 312 313 315 316 313 312 314 312 309 308 307 306 305 305 304 303 305 307 308 309 309 310 311 310 310 309 308 308 307 306 304 302 301 301 301 300 299 299
297 307 309 307 308 308 310 312 312 312 311 312 313 312 310 308 307 305 304 303 303 302 303 305 306 308 309 309 309 309 308 308 307 306 305 303 302 301 301 301 300 300 299 298
303 306 305 309 306 310 312 312 309 309 309 310 310 309 307 306 305 305 305 304 304 305 305 305 306 306 308 308 308 308 307 307 306 305 304 303 301 301 301 300 299 298 297 297
305 305 309 308 306 303 307 310 305 305 307 307 305 308 307 305 306 305 304 304 304 304 304 304 305 305 306 306 306 306 307 307 306 304 303 302 302 301 300 299 298 297 296 296
298 299 304 307 306 303 308 305 303 304 309 309 308 305 305 305 305 304 303 302 303 304 304 305 305 304 305 305 306 307 307 306 305 304 303 303 301 300 299 298 297 296 295 295
303 303 304 305 305 307 304 303 303 304 305 309 308 307 305 305 304 303 302 302 303 302 302 304 305 304 304 305 306 307 306 305 304 303 302 301 301 300 298 297 296 295 293 293
302 303 304 304 304 301 302 302 302 302 303 303 306 307 306 304 303 301 301 301 301 301 301 302 303 304 303 303 304 305 305 304 303 302 302 301 300 298 297 296 295 294 293 293
304 302 300 303 303 303 303 303 301 301 302 302 302 305 306 303 302 300 300 300 301 301 300 300 301 302 304 304 304 304 303 302 302 301 300 299 299 298 297 296 294 293 292 292
297 296 300 301 297 296 295 300 301 301 301 302 302 306 305 303 302 300 299 299 300 299 299 299 300 301 301 302 303 303 302 301 300 300 299 298 298 298 296 296 295 294 293 293
296 295 295 295 294 296 296 298 301 302 302 301 301 304 305 303 301 300 299 299 299 298 299 299 300 300 300 301 301 301 300 299 299 298 298 297 297 296 295 295 295 294 293 292
295 295 295 295 294 295 295 297 298 300 302 302 301 303 303 302 300 300 299 298 298 298 298 298 298 298 298 299 300 300 299 299 298 297 297 296 296 295 295 295 294 293 293 293
297 297 297 296 295 294 294 294 297 300 301 303 300 303 303 302 300 299 298 298 298 297 297 297 297 296 296 298 298 298 298 298 297 297 297 297 296 296 295 293 293 293 294 293
297 297 296 294 292 295 295 296 299 301 301 302 300 302 302 300 299 297 297 297 297 297 296 296 295 295 296 296 296 296 297 297 297 297 297 296 296 295 294 294 293 293 293 293
297 297 294 293 293 296 296 297 300 302 302 300 299 300 300 298 295 294 295 296 296 293 293 293 293 293 294 295 295 295 295 295 295 295 295 295 294 294 293 293 292 292 292 292
298 297 296 294 294 297 299 299 300 300 300 297 296 296 295 294 293 293 293 293 293 292 291 291 290 290 292 292 293 293 294 294 294 294 294 294 293 293 293 292 292 292 292 292
297 297 297 296 297 297 298 297 297 297 297 296 295 295 295 294 294 292 292 291 290 289 289 289 288 289 289 289 290 291 291 293 293 293 293 293 293 292 292 292 291 291 291 291
297 297 297 296 295 296 296 295 294 294 294 295 295 293 292 291 291 291 291 290 290 289 288 287 287 287 287 287 288 288 288 290 291 291 291 291 291 291 291 291 290 290 290 290
296 297 296 295 294 293 293 292 292 291 291 291 291 291 290 289 289 290 289 288 287 287 287 286 286 286 286 286 286 286 287 288 288 288 289 289 288 288 288 288 288 288 288 287
295 294 294 293 292 291 291 290 290 290 289 288 289 290 290 289 287 288 287 286 287 286 286 286 285 285 285 285 285 285 285 286 286 286 286 285 285 285 285 285 285 285 285 285
292 293 294 293 292 291 288 286 286 286 287 287 286 285 286 285 285 286 287 287 287 285 284 285 284 285 285 283 284 284 284 283 283 283 283 282 283 283 282 282 283 282 283 282
291 289 288 287 286 287 287 287 285 285 285 285 285 285 284 284 284 285 285 286 285 284 284 283 283 284 284 282 282 282 282 282 282 282 281 281 281 280 280 280 280 280 280 280
291 290 290 289 290 290 289 288 288 286 287 287 285 284 284 284 284 284 285 284 284 283 283 283 283 283 283 282 282 282 281 281 281 281 280 280 279 279 279 278 278 278 278 278
291 291 291 291 290 290 291 292 291 290 290 289 290 287 285 284 284 284 284 284 283 283 283 282 282 283 283 282 282 281 281 281 280 280 280 279 279 278 278 278 278 278 278 278
290 288 288 289 288 288 287 287 287 289 289 289 289 290 289 285 284 284 283 284 283 283 282 282 282 282 282 282 282 281 281 280 280 280 279 278 278 278 278 278 278 278 278 278
286 286 285 284 285 286 286 286 286 287 287 287 287 287 288 286 285 285 284 283 283 283 282 282 282 282 282 282 281 281 280 280 280 279 278 278 278 278 278 278 278 278 278 278

GFSNGP_925_thetae_102.txt.gz
Theta_e
305 305 308 310 310 310 314 315 313 310 310 309 308 307 308 308 307 308 308 307 307 306 305 305 308 309 310 311 312 312 311 311 311 310 309 308 307 306 305 306 308 306 303 302
297 301 303 306 309 310 312 311 315 313 312 308 309 305 307 307 308 308 308 306 304 303 304 305 306 308 309 311 311 311 311 310 309 308 307 306 306 306 307 306 303 302 301 301
299 300 306 303 307 309 310 313 313 315 313 312 313 311 311 309 307 306 307 306 304 303 302 304 306 307 309 309 311 310 310 309 308 308 307 306 306 306 304 302 301 301 301 301
299 304 303 305 306 308 308 309 311 312 311 312 312 311 311 308 308 307 305 304 302 301 302 304 304 305 307 308 309 310 309 309 308 307 306 305 305 303 301 300 300 300 300 299
302 304 302 307 307 304 311 311 306 305 306 308 308 308 308 306 304 304 304 303 303 304 304 305 305 305 304 306 308 308 309 308 307 307 306 305 302 301 300 300 300 300 299 298
298 304 307 308 307 304 303 311 305 305 305 307 306 310 310 305 305 305 303 303 303 303 303 304 304 304 304 304 305 306 308 308 308 307 306 303 302 301 300 300 300 299 299 297
297 298 300 303 306 303 309 305 304 305 305 305 307 305 305 305 305 303 303 302 303 303 302 303 304 304 304 303 304 307 307 307 306 305 304 303 302 301 300 299 299 298 297 296
301 301 301 304 304 307 304 302 303 302 304 304 305 305 305 305 304 302 301 302 302 301 301 302 303 304 303 303 304 305 306 306 305 304 303 302 301 300 299 298 297 296 296 296
300 301 301 304 303 301 301 302 301 301 301 302 303 303 303 304 303 301 300 300 301 300 300 301 302 303 303 303 304 305 305 305 304 303 302 301 301 299 298 297 296 296 295 294
303 302 300 300 303 300 297 299 300 301 300 301 302 302 302 303 301 300 299 300 300 299 299 299 300 301 302 303 303 303 303 302 302 302 300 300 300 299 298 297 296 295 294 294
296 296 299 300 296 295 295 295 296 299 300 301 301 302 301 302 301 300 299 299 299 298 298 298 299 299 300 301 302 302 302 301 300 300 300 299 299 299 298 297 297 296 295 294
296 294 294 295 293 295 295 296 295 297 299 300 301 301 300 302 300 300 299 299 298 298 298 298 298 298 299 300 301 301 300 300 299 299 298 298 298 296 296 296 296 295 295 294
294 295 294 294 294 293 294 294 294 294 295 299 301 301 301 301 300 300 298 298 297 297 297 297 297 297 298 299 300 300 299 299 298 298 297 297 296 296 295 295 295 294 294 294
296 296 295 295 294 292 293 294 295 296 298 299 302 301 302 301 300 299 298 297 296 296 296 296 296 296 296 298 298 298 298 298 298 298 297 297 296 296 295 295 294 294 294 294
297 296 297 295 292 292 295 296 296 299 300 301 302 300 302 300 299 298 298 297 296 295 294 294 294 294 295 296 296 296 297 297 297 297 297 296 296 295 295 294 294 293 293 293
297 297 296 295 292 293 296 299 300 300 300 300 298 298 300 299 295 294 296 296 295 293 293 293 292 292 293 294 294 295 295 295 295 295 295 295 295 294 294 293 293 293 293 293
298 297 296 296 295 297 298 298 298 298 299 297 295 295 295 294 293 293 292 293 293 291 291 291 290 290 290 290 291 292 293 294 294 294 294 294 294 293 293 293 292 292 292 292
297 297 297 297 297 297 297 297 296 296 296 296 295 295 294 294 294 292 292 291 290 289 289 289 288 289 289 289 289 290 290 291 292 292 292 292 292 292 292 292 291 291 291 291
296 297 297 297 296 295 295 294 293 293 293 293 294 292 291 291 291 291 291 290 290 289 289 287 287 287 287 287 287 287 288 289 290 290 291 291 291 291 291 290 290 289 289 289
296 297 296 295 294 293 293 292 292 292 291 291 292 291 291 290 290 290 290 289 289 288 287 286 286 286 286 286 286 286 286 287 288 288 289 288 288 288 288 287 287 287 287 286
295 295 294 294 293 292 291 289 289 289 289 288 287 288 288 289 287 287 287 287 288 287 286 286 285 285 285 285 285 285 285 286 286 286 286 285 285 285 284 284 284 284 284 284
293 293 294 293 291 290 288 286 285 285 285 286 286 285 285 285 285 286 286 287 288 287 285 285 284 284 285 283 283 284 284 284 284 283 283 282 283 283 282 282 281 281 281 281
292 290 288 286 286 287 289 286 286 285 285 285 285 285 284 284 284 284 285 286 286 285 284 284 283 284 284 283 282 282 282 282 282 282 281 281 280 280 280 279 279 279 279 279
291 291 290 289 289 290 290 291 290 290 288 287 288 287 284 284 284 284 284 284 284 284 284 283 283 283 284 283 282 282 282 281 281 281 280 280 279 279 279 278 278 278 278 278
292 291 291 290 290 290 291 291 290 290 290 290 290 290 290 288 284 284 284 284 284 284 283 283 283 283 284 283 282 281 281 281 281 280 280 280 279 278 278 278 278 278 278 278
290 289 288 288 287 287 287 286 285 286 285 286 288 289 289 289 288 285 284 283 283 283 283 283 282 282 283 283 282 281 281 281 280 280 280 279 279 278 278 278 278 278 278 278
285 285 284 284 285 285 285 285 285 285 286 286 285 286 286 286 287 288 288 287 285 284 284 283 282 282 282 282 281 281 281 281 280 280 280 279 279 279 278 278 278 278 278 278

GFSNGP_925_thetae_105.txt.gz
Theta_e
303 302 304 305 307 309 306 309 316 310 309 309 307 306 307 307 306 306 307 306 305 306 305 305 306 308 309 311 312 312 312 311 311 310 310 309 308 307 306 305 305 305 306 305
293 300 302 304 304 305 308 309 309 311 312 309 309 306 305 306 307 308 307 307 306 304 303 305 306 306 308 309 310 311 311 310 309 308 308 307 306 305 305 305 306 304 302 302
298 300 303 302 307 307 309 309 311 311 313 312 312 311 310 309 306 307 307 306 306 304 302 303 305 307 307 308 310 310 310 309 308 307 306 305 304 304 305 305 302 301 301 300
301 298 300 308 305 308 309 309 307 310 309 308 309 310 309 308 307 307 306 305 304 302 302 304 304 304 305 307 308 309 309 309 308 307 306 304 304 304 304 302 301 301 300 300
301 303 300 307 307 306 308 311 307 307 307 307 306 305 308 306 305 305 304 303 303 303 303 303 304 304 304 305 306 307 308 308 308 307 306 305 304 303 302 300 300 300 300 299
296 301 306 306 306 304 303 310 306 305 306 306 306 311 309 304 304 304 303 302 302 303 303 303 303 304 303 303 304 306 307 308 308 307 306 304 304 302 300 300 300 299 299 298
297 298 299 298 303 303 310 306 304 304 304 305 307 306 305 304 304 303 302 302 302 302 302 302 303 303 303 303 303 304 305 307 307 306 306 305 302 300 299 299 299 298 298 297
300 301 300 303 303 307 303 302 302 302 303 304 304 303 303 303 303 302 301 301 301 301 301 301 301 302 302 302 304 303 304 306 306 305 304 303 301 299 299 299 298 297 296 295
299 300 298 304 303 301 300 302 301 301 301 302 303 303 302 302 302 301 300 300 300 300 300 300 300 300 301 302 303 303 304 304 304 303 303 302 301 299 298 297 297 296 295 295
302 300 300 299 302 300 296 296 296 297 298 299 301 302 302 302 301 300 299 299 299 299 298 298 298 299 300 301 302 302 302 303 302 302 301 300 300 299 299 297 296 296 295 295
297 296 296 300 296 295 294 295 295 295 295 298 299 301 301 301 301 300 299 299 298 298 297 297 298 299 299 300 301 301 301 301 300 300 300 299 299 299 298 298 298 297 297 296
297 294 294 295 294 294 295 295 294 294 294 296 298 300 301 302 300 299 299 298 298 297 297 297 298 298 299 300 301 301 300 299 299 299 299 298 297 296 297 297 297 296 296 295
293 292 293 294 293 293 293 293 293 293 293 294 296 299 301 301 300 300 298 297 297 296 296 296 296 297 297 298 299 300 300 299 298 298 298 297 297 296 296 295 296 295 295 295
295 295 295 295 294 292 291 293 295 295 296 297 298 300 301 302 301 299 299 297 297 296 295 295 295 295 296 297 298 298 298 299 299 298 298 297 297 296 296 295 294 295 295 295
295 295 295 294 293 292 293 295 298 299 299 300 301 300 301 301 300 298 297 297 298 295 295 294 293 293 294 295 296 296 297 297 297 297 297 296 296 296 295 295 294 294 294 294
295 296 296 295 294 292 295 298 299 300 300 297 296 296 298 299 297 295 295 295 295 294 293 292 291 291 292 293 294 294 294 295 295 295 296 296 295 295 294 294 293 293 293 293
296 296 295 296 295 296 298 298 297 297 297 297 296 295 294 294 293 293 293 293 293 292 291 291 290 290 290 290 291 292 293 294 294 294 294 294 294 294 293 293 293 292 292 292
295 297 296 297 296 296 297 296 296 295 295 295 295 294 294 294 294 293 292 291 291 290 289 289 289 288 288 288 289 289 290 291 292 292 292 293 292 292 292 292 291 291 291 291
295 296 296 297 296 296 295 295 294 293 293 293 293 293 292 291 291 291 291 291 290 290 290 288 287 287 286 286 286 286 288 289 290 290 291 291 291 291 291 290 290 289 289 289
295 295 296 296 295 294 294 293 293 292 290 290 291 292 291 291 290 290 290 290 290 290 288 287 286 286 286 286 285 286 286 287 288 289 289 289 289 288 288 288 287 287 287 287
294 295 295 295 294 293 291 289 287 287 287 287 286 286 286 286 287 287 287 287 288 288 287 286 286 285 285 285 285 285 286 286 286 286 286 286 286 285 285 285 284 284 284 284
294 294 294 293 292 290 288 286 286 285 284 284 285 285 284 284 284 285 285 286 287 287 286 285 285 284 285 284 283 284 284 284 284 284 283 283 283 282 282 281 281 281 281 281
292 291 289 287 285 287 289 290 287 285 286 286 286 286 284 284 284 283 283 285 286 286 286 284 284 284 285 284 282 283 283 283 283 282 282 281 281 280 280 280 279 279 279 279
292 290 290 289 288 289 290 291 291 291 291 291 290 289 288 287 287 287 284 284 284 284 284 284 283 283 285 284 282 282 282 282 281 281 281 280 280 280 279 279 278 278 278 278
292 292 291 291 290 290 289 287 287 287 287 287 287 288 288 289 288 288 288 286 284 284 284 283 283 283 284 284 283 282 282 281 281 281 281 280 280 279 279 278 278 278 278 278
291 290 289 288 287 287 286 285 284 284 284 284 285 286 286 287 287 287 287 286 286 285 284 283 283 282 283 283 283 282 281 282 281 281 280 280 279 279 279 278 278 278 278 278
287 287 285 284 284 285 285 284 283 284 284 284 284 286 286 286 286 285 285 285 286 285 285 284 284 283 282 282 282 282 282 281 281 281 280 280 279 279 279 279 278 278 278 279

GFSNGP_925_thetae_108.txt.gz
Theta_e
303 303 303 304 305 305 308 309 313 315 315 314 313 313 309 311 310 311 312 311 310 311 310 310 311 312 312 312 311 311 311 311 311 311 311 312 313 313 312 309 307 306 305 305
302 303 306 304 304 305 307 307 309 309 311 310 311 312 312 310 309 310 311 312 311 309 308 309 309 310 310 311 311 311 311 310 309 308 307 306 306 305 305 304 304 304 303 304
307 304 306 309 310 310 310 310 310 312 312 312 312 313 313 313 312 313 312 311 310 309 307 307 307 308 309 310 310 310 310 309 308 307 306 305 304 303 303 303 303 303 303 302
307 306 312 311 308 310 310 309 308 309 309 309 310 310 309 310 312 312 311 310 309 307 307 306 306 306 306 307 309 309 310 309 308 306 306 304 303 303 303 303 302 302 301 300
307 306 306 309 309 309 309 312 307 307 308 308 309 308 309 308 307 307 307 307 307 306 305 305 305 304 304 306 307 308 309 309 308 306 305 304 303 303 302 302 301 301 300 300
305 306 307 311 307 306 307 312 307 306 307 307 310 314 312 307 306 306 306 305 305 305 305 305 305 304 305 305 305 307 308 308 307 306 305 304 303 302 301 301 301 299 299 298
304 305 303 302 305 305 312 311 306 306 305 306 308 306 305 305 306 304 303 303 304 304 304 303 303 303 304 305 305 305 305 306 306 305 304 303 303 301 300 299 298 296 297 297
303 305 306 302 306 308 307 305 305 305 305 305 304 305 306 305 306 304 303 302 302 302 302 301 301 301 304 305 304 303 303 304 305 304 303 303 301 300 298 296 296 296 296 296
305 305 302 306 306 304 304 305 302 301 301 302 303 303 303 305 305 304 302 302 301 301 301 300 299 299 301 303 302 302 303 304 304 303 301 301 299 297 295 296 296 296 298 297
305 305 303 303 304 304 300 299 298 298 299 299 301 302 302 303 305 305 302 301 300 301 302 301 299 298 299 300 301 302 303 303 302 302 300 299 297 297 296 295 298 298 298 297
305 303 300 301 301 300 297 298 298 298 298 298 298 301 301 302 303 304 302 300 300 300 299 299 298 298 298 299 300 301 302 301 300 300 298 297 297 297 297 298 298 298 297 297
304 301 300 301 298 297 297 297 297 297 298 298 298 298 300 302 302 301 300 299 299 298 297 298 297 297 298 299 300 301 300 299 298 298 297 297 296 296 297 298 299 298 298 298
299 296 297 298 297 296 296 296 296 297 298 298 299 299 300 302 302 300 299 299 298 297 297 296 296 296 296 298 299 299 299 299 299 299 298 297 297 297 295 296 297 297 296 296
296 298 298 297 297 295 295 295 297 298 299 299 300 300 302 303 302 300 300 298 296 296 295 295 295 294 294 296 297 298 299 299 299 299 298 297 297 296 297 296 295 295 296 295
297 298 298 297 295 295 295 297 299 300 300 300 298 299 300 301 301 300 298 297 297 296 296 295 293 293 293 294 295 296 297 297 297 297 297 297 297 296 296 296 295 295 294 295
297 298 297 297 296 296 297 298 299 299 299 298 297 296 296 296 297 296 296 296 296 296 295 294 293 292 291 292 292 293 294 295 295 296 296 296 295 295 295 294 294 294 294 294
298 297 297 297 296 296 298 298 298 297 297 297 297 296 295 294 294 294 293 294 293 293 292 292 291 291 291 291 291 291 292 293 294 294 294 294 294 294 294 294 293 293 293 293
298 297 297 297 297 296 296 297 296 296 296 295 295 295 295 295 295 294 293 292 291 291 291 290 290 289 288 288 289 289 290 291 292 292 293 293 293 293 292 292 292 292 291 291
297 298 297 297 297 296 295 295 294 294 293 293 293 293 292 292 291 291 291 291 290 290 291 290 289 288 287 286 287 287 288 289 290 290 291 291 291 291 291 291 291 290 290 290
296 296 296 296 295 295 294 294 293 292 291 289 289 291 291 291 291 290 290 291 291 291 291 290 288 286 286 286 286 286 287 288 289 289 290 290 290 289 289 289 289 288 288 288
296 296 296 296 296 294 293 291 289 287 286 286 287 287 286 286 286 287 287 287 288 288 288 287 286 286 285 285 285 285 286 286 287 288 288 288 287 287 286 286 285 286 285 285
295 294 294 295 293 292 288 287 286 285 284 285 285 285 285 285 284 284 284 285 286 286 287 287 285 285 285 284 284 284 284 285 285 285 285 285 285 284 283 283 283 282 282 282
294 293 292 291 288 287 288 289 289 287 286 288 288 288 287 287 287 285 286 285 284 285 286 286 285 284 284 285 283 283 283 283 283 283 282 282 282 282 281 281 280 280 280 279
293 291 290 289 288 289 290 291 290 290 289 289 289 289 288 288 288 288 288 286 283 284 284 285 284 283 284 285 284 282 282 282 282 282 282 281 281 280 280 279 279 279 279 279
292 292 292 291 291 291 289 287 287 287 286 286 286 286 286 286 286 287 287 287 287 287 284 284 284 284 284 284 284 283 282 282 282 281 281 281 280 280 280 279 279 278 278 279
292 291 291 290 289 288 287 286 286 285 285 285 285 285 286 286 286 285 285 285 286 286 285 285 285 284 283 283 283 283 282 281 281 281 281 280 280 280 280 279 279 278 278 279
290 289 287 286 284 285 285 284 284 285 284 283 284 284 284 284 284 285 285 284 284 284 284 285 285 284 284 284 283 282 282 281 281 281 281 281 280 280 279 279 279 278 278 278

GFSNGP_925_thetae_111.txt.gz
Theta_e
304 304 304 304 305 305 308 309 312 312 312 314 313 313 313 312 313 313 313 313 312 311 312 312 314 314 315 315 315 315 315 316 316 316 316 315 315 315 315 313 313 313 310 308
305 305 305 304 304 304 306 308 309 310 312 311 312 313 314 313 312 313 313 313 312 311 310 310 311 311 313 313 313 313 313 313 312 311 311 311 311 311 311 311 309 308 306 305
308 307 308 312 310 310 311 311 311 312 312 311 311 311 312 312 313 313 313 312 311 309 309 308 308 309 311 312 312 313 312 311 310 309 309 308 308 307 306 305 305 304 303 303
310 309 315 311 309 311 310 310 309 310 310 311 311 311 310 310 310 311 310 310 310 309 309 308 308 308 307 309 310 311 312 311 309 308 308 307 306 305 305 304 304 303 303 303
311 308 308 309 309 310 310 312 309 309 310 310 311 310 310 308 308 308 308 308 308 308 307 307 307 307 307 307 308 310 311 311 310 308 307 306 305 305 304 304 303 303 303 302
308 309 307 311 310 308 309 312 309 307 308 308 310 314 311 307 308 307 307 307 306 306 307 307 306 306 306 307 307 308 309 310 310 309 307 306 305 304 303 303 303 302 301 300
307 308 305 308 307 307 312 313 309 308 307 308 309 308 307 307 307 306 304 305 305 305 306 306 304 304 306 307 307 307 307 308 309 309 307 306 305 303 302 302 300 299 299 299
305 307 308 306 307 310 309 307 307 307 305 305 305 305 305 305 307 307 305 303 303 303 304 304 303 303 305 306 306 305 306 305 307 307 306 305 303 302 300 299 298 298 298 298
306 307 306 306 308 307 306 307 306 303 302 301 302 303 303 303 305 307 305 304 303 303 303 302 301 301 302 303 303 304 304 305 306 306 304 303 302 300 299 298 299 299 299 299
306 306 305 306 306 305 305 303 301 300 300 300 300 300 301 302 303 305 306 303 302 303 303 303 301 301 300 300 302 303 304 305 305 305 303 302 300 298 299 299 299 299 300 300
305 305 304 303 303 304 301 300 299 299 299 299 299 299 300 301 302 304 304 302 302 301 301 300 300 300 299 299 301 303 304 304 304 304 302 301 299 297 298 298 300 301 300 299
305 305 304 304 303 300 300 299 299 298 298 298 299 300 299 300 301 303 301 301 300 299 299 299 299 299 297 298 299 302 302 302 301 299 298 298 297 296 297 298 298 299 299 299
303 301 300 300 299 299 298 297 297 297 299 299 299 300 300 300 302 303 301 299 300 298 298 298 298 297 296 296 298 299 299 299 299 298 298 297 296 296 295 296 297 298 298 298
299 299 300 299 300 297 297 297 297 299 299 300 300 300 300 302 302 302 300 300 298 297 296 296 297 296 295 295 296 297 299 299 299 298 298 298 298 297 297 296 295 296 296 296
299 300 300 299 297 297 297 298 298 299 301 300 299 298 299 301 301 301 299 298 297 296 296 295 295 294 294 294 295 295 296 297 297 298 298 298 297 297 296 296 296 296 295 295
299 299 299 299 297 297 298 298 298 299 299 299 298 298 296 296 296 297 297 296 296 296 296 294 294 293 294 293 293 294 294 295 295 296 296 296 296 296 295 295 295 295 295 295
299 299 299 299 297 297 298 298 297 298 298 298 297 297 296 296 295 294 294 293 293 293 293 292 291 291 291 290 291 292 292 293 293 294 294 295 295 294 294 294 294 294 294 294
300 299 299 299 298 298 297 297 297 297 297 296 295 296 295 295 295 294 293 293 293 292 292 292 291 291 290 289 288 289 290 291 291 292 293 293 293 293 293 293 293 293 293 293
298 299 298 298 298 297 296 295 295 294 294 294 294 294 293 293 293 292 291 291 291 292 292 292 291 290 290 289 287 287 288 289 290 290 291 291 292 292 292 292 292 292 291 291
298 298 298 298 296 296 295 294 294 293 292 291 290 290 290 290 289 290 290 290 291 291 291 291 289 288 287 286 286 286 286 287 288 289 289 290 290 290 290 290 290 290 290 289
297 297 297 296 296 295 295 294 293 290 288 287 287 287 287 287 286 286 286 287 287 287 287 288 287 287 286 286 285 285 286 286 287 288 288 289 288 288 288 288 288 287 287 287
297 296 296 295 295 294 293 290 288 287 287 287 287 288 288 288 289 288 287 286 286 286 286 287 287 287 286 285 285 284 284 284 285 286 286 286 287 286 286 285 285 285 284 284
296 295 294 294 293 293 289 290 290 288 288 288 289 289 289 289 289 287 289 288 286 286 285 286 287 286 285 285 285 284 283 284 284 284 284 283 284 284 283 283 282 282 281 281
294 294 293 292 290 290 291 291 291 291 290 289 288 289 288 288 289 289 288 287 288 286 284 285 285 285 285 285 285 284 283 283 283 283 283 282 282 281 281 281 280 280 280 280
293 292 292 291 291 292 292 289 288 288 287 287 287 286 286 286 286 287 286 286 286 285 286 286 285 285 285 284 285 284 284 283 282 282 282 282 281 281 281 280 280 279 279 279
292 293 292 292 292 291 290 288 288 287 286 286 286 286 286 285 285 285 285 286 285 285 285 284 284 285 285 284 284 284 283 283 283 282 281 281 281 281 280 280 279 279 279 279
292 291 290 289 287 287 287 286 286 286 285 284 285 285 285 283 283 283 284 284 284 284 284 284 284 284 284 284 284 284 283 283 282 281 281 281 281 281 280 280 280 279 279 279

GFSNGP_925_thetae_114.txt.gz
Theta_e
304 304 305 304 304 305 301 306 304 308 308 311 311 311 311 309 310 312 311 310 308 307 307 310 313 314 315 316 317 319 321 322 321 320 320 320 320 318 318 319 319 318 318 316
298 305 305 304 304 304 305 307 309 310 312 310 310 310 309 310 311 311 311 310 308 307 306 307 308 312 313 313 313 315 315 316 319 318 317 316 315 315 316 315 314 314 312 311
305 307 305 303 309 309 311 309 310 310 310 309 310 310 310 308 309 309 308 308 308 307 306 307 307 308 309 311 312 313 312 312 312 312 312 312 312 312 312 311 310 310 308 307
303 303 305 310 309 310 310 310 309 309 309 309 310 309 308 307 307 307 307 306 306 305 306 307 307 306 307 308 311 312 312 310 310 309 309 309 309 308 308 308 307 307 306 305
304 304 307 308 307 310 310 310 308 308 308 308 308 309 307 305 306 305 305 305 305 306 306 307 306 306 306 307 307 309 311 311 310 309 308 308 307 307 307 306 305 304 304 303
304 306 307 311 309 308 308 309 308 307 308 307 307 313 309 306 306 305 304 306 305 305 306 306 305 304 305 306 307 307 307 309 311 309 308 307 306 305 305 305 304 303 303 303
303 304 305 307 307 307 311 309 307 307 307 306 307 307 305 306 305 306 305 304 303 304 304 304 304 304 304 305 306 306 307 306 309 310 308 307 306 305 305 304 303 302 302 301
303 304 303 305 306 309 307 307 307 306 305 305 304 303 303 303 304 305 305 304 303 303 303 303 302 302 302 303 303 304 304 305 306 308 308 307 306 304 304 302 301 301 300 300
303 305 304 305 306 305 305 305 305 304 302 301 300 300 300 301 301 304 305 303 303 302 303 303 301 301 301 301 301 302 303 304 305 306 307 306 304 303 301 300 299 299 298 298
303 304 304 304 306 305 304 303 300 300 300 299 299 299 298 298 299 302 304 303 302 302 302 301 301 300 300 300 300 302 303 304 305 306 304 303 302 302 300 299 298 298 299 298
302 302 304 302 303 303 300 299 299 299 298 298 298 298 298 297 298 300 303 302 301 301 300 300 299 299 298 298 300 302 303 304 304 304 304 302 301 300 299 299 300 299 299 300
301 302 301 303 300 300 299 299 299 298 297 297 298 298 298 298 298 300 302 301 300 300 300 299 299 298 297 298 299 300 301 302 302 302 302 301 300 298 298 298 299 300 300 300
300 299 299 298 297 298 298 297 297 297 297 298 299 300 301 299 300 303 302 300 300 299 298 298 297 296 296 296 297 299 299 299 299 299 299 299 298 297 297 298 298 298 299 299
297 297 299 298 298 296 296 296 297 298 298 299 300 299 300 300 300 302 302 300 299 298 297 296 296 295 295 295 296 296 297 298 298 298 298 297 298 297 297 296 296 297 298 298
296 298 299 296 295 295 296 297 298 298 299 299 299 298 297 297 299 299 299 298 298 297 297 296 296 296 295 295 295 295 295 295 296 297 297 297 297 296 296 296 296 296 296 296
297 297 297 296 295 295 296 296 298 298 298 298 298 297 297 296 296 296 296 296 296 296 295 295 294 294 293 292 292 293 293 294 294 295 295 295 296 295 295 295 295 295 295 296
298 297 297 297 295 295 296 296 297 297 297 296 296 296 296 296 296 295 294 294 294 293 293 293 292 292 292 291 291 290 291 291 291 292 293 293 294 294 294 294 294 294 295 295
297 297 297 296 296 295 296 297 297 297 296 295 294 294 294 294 294 294 293 292 292 292 292 292 292 292 291 290 290 289 288 289 290 290 290 291 292 293 293 293 293 293 294 294
297 297 297 296 296 295 295 296 296 295 294 293 293 293 292 292 292 291 291 290 290 291 291 291 291 291 290 289 289 288 288 288 287 288 289 290 291 291 292 292 292 292 292 292
297 297 296 296 297 296 296 295 295 294 293 292 290 289 289 288 288 287 287 288 288 288 289 288 289 289 288 287 286 286 286 286 287 287 288 289 289 290 290 290 290 290 290 290
296 296 296 295 295 295 295 294 294 293 291 288 287 287 286 287 288 287 286 285 288 287 286 286 287 287 287 286 286 285 285 285 286 287 287 288 289 289 289 289 289 289 288 288
295 294 294 295 295 295 295 293 291 288 287 286 287 288 288 289 289 290 290 289 290 287 286 286 286 287 287 286 286 285 285 284 284 285 286 286 287 287 287 286 286 286 286 286
294 295 294 294 294 293 291 289 289 288 287 287 288 289 289 289 289 287 287 289 288 288 288 287 285 286 287 286 285 285 285 284 283 284 284 284 284 285 285 284 283 283 283 283
294 294 294 293 293 290 288 290 290 291 290 289 289 288 288 287 287 287 288 288 287 286 286 286 286 286 286 286 285 285 285 284 283 283 283 283 283 283 283 282 282 281 281 281
293 293 292 290 288 289 291 290 289 289 288 287 287 287 287 286 286 286 286 285 286 286 285 284 285 285 285 285 285 285 285 284 284 283 282 282 282 282 281 281 281 280 280 280
291 290 290 291 291 291 290 290 289 288 287 286 286 286 285 285 284 284 284 284 284 284 284 284 284 284 284 284 284 284 284 284 284 283 283 282 282 281 281 281 281 280 280 280
292 292 291 289 289 289 288 288 286 285 286 285 284 284 285 283 283 282 282 281 281 281 281 281 282 282 283 283 283 283 283 283 283 283 283 282 281 281 281 281 280 281 281 281

GFSNGP_925_thetae_117.txt.gz
Theta_e
302 303 304 303 303 304 297 303 301 307 312 311 309 308 309 306 308 308 307 306 306 305 304 305 310 312 314 315 317 321 322 323 323 323 323 323 323 324 325 325 324 323 322 321
296 304 304 304 303 303 304 306 308 308 313 309 309 306 306 306 307 307 307 306 306 305 304 304 305 308 311 312 313 316 317 318 318 318 320 319 318 318 318 317 317 316 316 316
301 305 299 299 307 308 310 309 308 306 309 308 309 310 307 306 305 306 305 305 305 303 304 305 305 306 307 311 312 312 313 314 315 315 317 317 317 316 315 315 315 313 312 311
298 297 297 303 309 309 309 308 308 309 308 309 310 308 305 304 305 304 305 304 303 303 304 305 305 305 306 307 310 311 311 311 311 311 312 312 313 313 313 313 313 311 310 309
300 298 302 308 307 309 308 307 306 306 307 307 306 308 307 305 304 304 303 303 304 304 304 304 304 304 305 306 306 307 310 311 310 310 310 310 310 309 309 310 309 309 309 307
299 303 305 306 307 306 306 306 306 305 306 306 306 309 309 304 304 304 304 303 303 303 304 303 302 303 305 305 306 306 306 306 310 310 309 308 308 307 307 306 306 306 305 305
298 299 302 306 306 306 307 301 305 305 305 305 304 305 303 303 302 304 304 303 303 303 302 302 302 302 302 303 302 303 304 305 306 309 309 308 307 306 306 305 305 304 303 303
299 300 299 304 305 305 303 305 305 304 303 303 303 302 301 301 301 302 304 303 302 302 302 302 301 301 300 300 301 302 303 303 304 305 308 308 306 305 304 304 303 302 302 301
300 300 299 302 304 303 302 303 304 303 302 301 300 299 298 298 298 301 302 303 302 302 301 301 300 300 299 299 300 301 302 303 304 305 306 307 306 305 303 302 302 301 300 300
301 299 302 303 303 302 303 301 299 298 298 298 298 298 297 296 296 296 302 303 302 301 300 300 299 299 298 299 300 301 302 303 304 305 305 305 304 303 302 301 299 299 298 298
299 299 301 301 301 301 299 297 297 297 297 297 297 297 297 296 296 297 300 302 301 301 300 300 299 299 299 299 299 300 301 302 303 304 304 303 303 302 301 301 300 299 299 299
299 298 299 299 298 299 298 297 297 296 296 296 297 297 297 297 297 297 299 301 300 300 300 299 299 298 297 298 298 299 299 300 300 300 301 301 301 301 300 300 299 299 299 300
299 298 298 298 297 297 297 296 295 295 296 297 297 299 300 299 298 300 301 301 299 299 299 298 297 297 296 296 296 297 297 298 299 299 299 298 298 298 297 298 298 298 299 299
296 296 298 297 297 295 295 295 297 297 298 297 298 299 299 299 300 300 301 300 299 298 297 297 296 296 296 296 297 296 296 296 296 297 297 297 297 297 296 295 296 297 297 298
295 297 296 295 294 294 295 295 296 296 296 298 298 298 297 297 297 298 298 298 298 298 297 297 296 296 296 295 295 295 295 295 295 295 295 296 296 296 296 296 296 295 296 297
295 296 295 296 294 294 294 295 295 296 298 298 298 297 297 296 295 296 295 295 295 295 295 295 294 294 294 293 292 292 292 292 293 294 294 293 294 295 295 295 294 295 295 295
296 295 295 294 294 294 294 295 295 296 297 297 297 295 295 296 296 295 295 294 294 294 293 293 293 293 293 293 292 292 291 290 290 291 290 292 292 293 293 294 294 294 294 295
296 297 296 295 294 294 294 294 295 297 297 296 295 294 294 293 294 293 292 291 291 291 291 292 292 292 291 291 290 290 289 288 288 289 289 289 289 291 291 292 292 292 293 294
295 296 295 295 294 294 294 294 296 296 296 295 293 293 293 292 292 291 290 290 289 289 289 290 288 289 289 290 289 288 287 287 287 287 288 288 289 289 290 291 291 292 292 292
295 296 296 295 295 295 294 296 296 295 295 293 292 289 288 288 287 286 286 286 287 287 288 287 287 287 288 288 287 286 286 286 286 286 286 287 288 288 289 290 290 290 291 291
295 294 294 294 294 295 295 295 295 294 293 292 289 287 286 286 288 289 287 287 291 290 287 287 286 286 287 287 287 286 286 285 285 285 285 286 286 287 288 289 289 289 289 289
294 294 293 294 293 293 294 294 294 293 292 288 286 286 287 288 289 289 289 289 289 288 287 288 288 286 286 287 287 286 286 285 285 284 284 284 285 286 286 287 287 287 287 287
294 294 293 293 293 293 293 293 291 289 287 286 286 288 288 289 289 287 286 288 288 288 287 286 286 286 287 287 287 286 285 285 285 284 283 283 283 284 284 285 285 285 285 285
293 293 293 294 294 292 288 289 289 288 288 288 289 289 288 287 287 286 287 286 286 286 286 285 284 285 286 286 286 286 285 285 285 285 284 283 283 283 283 283 283 282 282 282
292 292 292 292 292 290 289 289 289 290 289 289 287 287 286 286 286 286 285 284 284 284 284 284 284 284 283 283 283 283 284 284 284 285 284 283 283 282 283 282 281 281 281 280
292 292 292 291 290 289 289 290 289 289 287 285 285 285 285 285 284 283 283 282 281 281 281 281 281 281 282 282 282 282 282 282 283 283 283 283 283 283 282 282 282 282 281 282
290 290 289 288 289 290 290 289 288 286 286 285 284 284 284 283 282 281 280 280 280 279 279 279 279 279 280 280 280 281 281 281 281 282 283 283 283 283 282 281 281 281 281 282

GFSNGP_925_thetae_120.txt.gz
Theta_e
301 302 303 303 303 302 296 302 299 306 309 310 308 307 306 305 305 305 305 305 304 303 302 303 304 308 311 313 316 320 322 322 322 324 323 323 324 324 323 323 323 323 322 324
295 303 304 304 303 302 303 305 306 307 309 308 307 306 305 305 305 305 304 304 304 303 302 303 303 304 307 310 312 315 317 317 318 320 320 321 321 321 320 319 318 318 319 320
300 301 298 296 305 303 309 307 307 305 306 307 309 309 306 305 304 305 305 304 303 301 301 303 303 304 305 307 311 311 312 313 314 315 316 316 316 317 315 316 317 317 317 318
296 294 292 297 307 308 308 307 307 307 307 306 309 307 305 304 304 304 303 303 302 302 302 303 303 304 305 306 306 309 310 310 310 310 311 313 313 315 315 315 314 313 313 312
298 297 299 305 307 308 308 305 304 305 305 306 306 307 305 304 304 304 302 301 302 303 303 303 303 303 304 305 306 306 306 306 308 309 309 309 310 311 311 311 310 310 310 309
298 301 301 301 305 305 304 304 305 304 304 305 304 309 304 304 303 303 303 302 302 302 302 302 302 303 303 303 303 302 303 304 305 307 309 308 308 308 308 308 309 309 308 307
297 299 300 299 305 305 305 296 304 303 303 303 304 302 301 303 302 302 303 303 302 302 301 301 301 301 301 301 301 302 303 303 304 305 306 308 308 307 307 307 306 306 306 306
298 298 298 303 305 303 300 305 304 303 302 302 301 301 300 300 300 300 301 303 302 301 301 300 300 300 299 299 300 301 302 303 304 304 304 306 307 306 305 305 304 304 303 303
298 299 297 302 301 301 302 304 303 302 302 301 301 299 298 297 297 296 299 302 302 301 301 300 300 299 299 298 300 301 302 303 304 304 304 305 306 305 304 303 302 302 301 301
300 298 298 300 301 301 300 301 301 300 299 297 297 297 297 296 295 295 297 299 301 301 300 299 299 299 298 298 299 301 301 302 303 303 304 304 304 304 303 302 300 300 299 299
297 297 297 297 299 300 301 298 297 296 296 296 296 296 296 295 295 296 296 298 301 300 300 299 299 298 297 297 298 300 300 300 301 301 302 303 303 302 302 302 301 300 300 300
298 297 297 296 298 299 298 297 296 296 296 295 295 295 296 295 296 296 296 298 300 300 299 299 298 297 296 297 297 298 298 299 299 300 299 300 300 301 300 300 300 299 299 298
297 295 296 298 297 297 297 296 295 294 294 294 296 297 297 298 298 297 299 300 300 299 299 299 297 297 296 297 297 297 296 296 297 297 298 298 298 297 297 299 298 298 298 298
295 296 299 297 298 295 296 295 297 295 295 296 296 298 299 299 300 299 299 299 299 299 298 297 297 297 297 296 296 296 296 296 295 295 296 296 296 296 296 295 295 297 298 298
293 296 297 295 294 294 294 294 294 294 295 295 297 297 297 297 296 297 298 298 298 298 298 297 297 297 296 295 294 294 293 293 293 294 294 294 294 294 295 295 294 295 296 296
293 294 294 295 295 293 293 293 294 294 295 296 297 297 296 296 295 296 296 295 295 295 295 295 295 295 294 294 293 293 292 292 291 291 291 291 291 292 292 293 293 293 293 294
295 295 294 294 294 293 294 294 294 295 295 296 297 297 296 295 295 295 295 294 294 293 293 293 293 293 293 293 292 291 291 290 289 289 289 289 289 289 289 290 291 292 292 293
296 297 296 296 294 294 293 293 294 295 295 297 296 295 294 294 294 294 293 291 291 290 290 290 291 290 290 289 290 290 289 288 288 288 287 287 288 288 289 289 290 291 291 292
294 294 294 293 294 294 293 293 294 296 296 296 295 294 294 293 292 292 291 289 288 287 287 288 289 288 287 286 288 288 288 287 286 286 286 286 285 286 287 289 288 289 290 290
293 294 294 293 294 293 293 294 295 295 296 295 294 292 290 291 290 289 286 285 288 289 289 287 287 287 286 287 287 287 287 286 285 285 285 285 286 286 286 287 287 288 288 289
294 294 294 293 292 293 294 294 295 294 294 294 292 290 288 287 286 287 287 286 290 289 288 287 287 288 287 286 286 287 286 286 286 285 284 284 284 285 285 286 286 287 287 287
294 294 293 292 292 292 294 295 295 295 294 293 291 288 285 286 288 288 289 289 289 288 288 287 287 286 286 287 287 287 287 286 286 285 285 284 283 283 284 284 285 286 286 286
294 293 292 292 292 292 293 294 294 294 293 291 287 285 286 288 288 287 286 287 287 287 286 286 285 285 285 285 285 286 285 285 285 285 284 284 284 283 283 283 283 284 284 284
293 293 292 292 292 291 288 290 292 292 290 287 286 286 288 288 287 286 286 286 285 285 285 284 285 285 285 283 283 283 283 283 283 284 284 284 284 284 283 283 283 283 283 282
293 292 292 291 291 290 290 289 288 287 287 288 289 289 288 286 286 285 284 283 283 282 282 281 281 281 281 282 282 282 282 281 282 282 283 283 283 283 283 283 282 282 282 281
292 293 292 292 292 290 290 288 287 288 288 287 286 286 285 285 284 283 282 281 281 280 280 279 279 279 279 279 280 280 280 281 281 280 281 281 282 282 282 283 282 282 282 282
291 290 289 289 291 291 289 288 288 287 287 285 284 284 284 283 281 281 280 280 279 278 278 278 277 277 277 278 277 277 277 277 278 279 280 280 281 281 281 282 282 282 281 282

GFSNGP_925_thetae_123.txt.gz
Theta_e
300 300 302 302 303 301 296 302 297 304 306 309 308 307 304 302 304 304 304 304 303 302 301 301 302 303 307 310 314 319 320 322 325 323 322 321 322 322 322 323 323 324 324 324
293 302 303 304 303 301 302 304 304 305 306 306 306 305 305 304 304 305 304 304 303 301 300 301 301 302 304 308 309 313 315 317 321 323 322 322 321 320 321 322 322 321 321 320
297 299 295 293 302 303 306 306 306 305 305 306 307 306 306 305 304 303 303 303 302 301 300 301 301 302 304 304 308 309 309 310 313 316 317 317 317 317 316 317 318 318 318 318
295 295 292 296 303 305 306 306 304 306 305 306 308 305 304 304 304 303 302 301 301 300 301 301 301 303 304 305 305 305 305 306 307 308 310 311 312 311 311 312 313 315 316 315
296 296 297 303 306 307 308 304 303 304 304 305 305 305 304 303 303 303 302 301 301 301 301 301 301 302 303 303 303 303 302 303 304 305 307 307 308 308 309 310 311 311 311 312
296 297 297 298 303 305 302 299 302 302 303 304 304 306 303 302 302 302 302 302 301 301 302 301 301 301 302 301 301 301 301 302 303 304 305 307 307 307 307 307 307 308 309 309
295 297 298 296 304 303 300 294 303 302 302 302 303 301 300 302 301 301 302 302 302 301 301 300 300 300 300 300 300 301 302 303 304 304 304 304 306 306 306 305 305 306 306 306
296 297 296 301 304 302 298 304 304 303 301 301 301 300 300 299 299 298 300 301 301 300 301 300 300 300 299 299 300 302 303 303 304 304 304 304 305 305 305 304 303 303 303 304
298 297 295 300 302 301 299 303 302 302 301 301 301 300 299 297 297 296 296 298 301 300 300 299 299 299 299 299 300 301 302 302 303 303 303 304 303 303 303 303 303 302 301 301
299 298 296 298 299 300 299 301 301 300 300 299 300 298 296 295 295 294 296 296 299 300 299 299 299 298 298 298 299 300 301 301 302 302 303 303 303 302 302 302 302 301 300 300
296 296 296 296 295 297 299 299 299 298 298 298 296 296 295 294 294 295 295 296 297 299 299 299 299 298 298 297 298 298 299 299 300 301 301 301 301 301 302 301 300 300 300 300
298 296 297 296 297 296 298 299 297 296 295 295 294 294 294 294 295 295 295 296 297 299 299 299 299 298 297 296 297 297 297 297 297 297 298 299 299 299 300 300 300 299 299 299
298 294 294 296 297 297 297 297 296 295 294 294 294 294 295 295 297 297 296 299 299 299 298 298 298 297 297 296 297 296 296 296 296 296 296 296 296 296 295 297 297 298 298 298
295 296 297 296 297 295 296 295 298 295 295 294 295 296 297 297 298 299 299 299 299 299 298 297 297 298 298 297 296 295 294 294 294 294 294 294 294 294 294 294 293 294 296 296
295 295 298 296 295 295 294 294 294 293 292 293 295 296 297 296 295 296 297 298 297 297 297 297 297 296 296 295 295 294 293 293 292 292 292 292 291 291 291 292 292 292 293 294
294 293 294 295 295 294 293 293 294 293 293 293 295 295 296 296 295 295 296 295 295 294 294 294 294 294 294 293 293 293 293 292 291 290 290 289 289 289 289 289 289 290 291 291
295 295 293 293 295 295 294 295 295 294 293 294 295 297 296 296 296 295 295 295 295 294 293 292 292 292 292 292 291 290 290 290 289 288 288 286 287 286 287 287 288 289 290 290
296 297 296 296 295 295 294 293 293 293 294 295 296 296 296 295 295 295 294 293 292 291 290 288 288 289 288 286 287 288 288 288 287 286 286 285 285 286 286 286 286 287 287 289
294 295 295 295 294 295 294 293 293 294 295 296 295 294 295 295 294 293 292 291 289 287 287 287 287 288 287 287 287 286 286 287 287 286 285 285 285 284 284 285 285 285 286 286
293 293 294 293 294 294 293 293 294 294 295 295 295 294 293 293 292 291 290 288 286 288 289 289 288 287 287 287 287 286 286 286 286 285 285 285 284 284 284 284 285 285 286 286
292 292 293 293 292 293 293 293 293 293 294 295 294 293 293 292 290 288 284 285 289 289 289 288 287 288 287 287 287 286 287 287 287 286 286 285 284 284 283 283 283 283 284 285
292 292 293 292 291 291 292 293 294 293 293 293 293 293 290 287 285 285 288 288 289 288 288 287 286 286 285 286 286 285 285 285 285 285 285 285 284 284 284 283 283 283 283 284
292 292 292 292 292 292 292 293 293 293 292 293 293 291 288 286 287 287 286 287 287 287 286 285 285 285 285 285 284 283 283 283 283 283 283 282 283 283 283 283 283 283 283 283
291 292 292 293 292 291 290 290 293 293 293 293 292 291 286 286 287 288 287 286 285 285 284 283 283 283 283 283 283 282 282 281 281 281 281 282 282 282 282 283 283 283 282 282
291 291 291 290 291 292 291 290 291 291 291 289 287 285 286 288 288 286 285 284 283 282 282 281 281 280 280 280 279 279 280 280 281 281 281 281 281 281 281 281 282 282 282 282
289 290 291 292 293 290 289 288 287 285 286 285 287 287 287 286 285 285 283 282 281 280 280 279 279 278 278 278 278 278 277 277 277 277 278 279 279 280 280 280 281 281 282 282
291 291 290 289 290 290 289 288 287 285 287 287 285 285 284 284 282 281 281 280 279 278 278 278 277 277 276 276 276 275 275 274 274 274 274 275 275 277 278 279 279 280 281 281

GFSNGP_925_thetae_126.txt.gz
Theta_e
298 298 301 302 302 301 296 300 296 302 304 306 306 305 304 302 303 304 304 304 303 301 300 300 300 302 304 307 311 315 319 320 320 321 321 321 321 321 321 323 323 324 324 324
292 301 302 303 303 301 301 303 303 303 305 302 305 304 303 303 303 303 303 302 302 301 300 300 299 301 303 304 307 309 310 312 316 317 318 317 317 319 320 321 321 321 322 322
295 299 294 292 299 303 304 303 305 305 303 305 306 305 304 304 303 302 302 301 300 299 299 299 299 301 301 303 304 304 305 307 308 310 312 314 315 316 316 316 315 316 317 319
295 292 292 296 302 302 303 304 303 304 303 305 306 306 303 302 303 302 302 301 299 299 300 300 300 301 302 303 303 304 304 304 305 307 308 308 310 310 311 312 313 314 314 314
296 294 294 300 303 306 306 301 301 302 302 303 304 304 303 302 302 303 301 300 300 300 300 300 300 300 301 302 302 302 302 303 303 304 305 307 307 307 307 308 308 309 310 311
295 296 296 296 302 304 302 295 299 301 301 302 302 304 301 301 301 301 301 301 301 301 300 300 300 300 300 300 301 301 301 302 303 303 304 304 305 306 305 305 306 306 306 307
294 295 296 294 303 302 299 294 301 301 300 300 302 301 299 300 300 301 300 302 301 300 300 299 300 300 300 300 299 300 302 303 303 303 304 304 304 304 304 304 304 304 304 305
295 296 296 297 304 301 296 299 302 301 300 300 300 299 298 298 298 298 299 300 301 300 300 300 300 300 299 299 299 301 302 302 302 303 303 303 303 302 303 303 303 303 303 303
297 297 294 299 300 300 295 301 302 301 300 300 300 299 298 297 296 295 296 297 299 299 299 299 299 299 298 298 299 300 301 302 302 302 302 302 302 303 302 302 302 302 302 302
298 298 295 296 297 298 298 299 300 299 300 298 299 298 297 295 294 293 295 295 296 299 298 298 299 299 298 297 298 299 299 300 300 300 300 301 302 301 301 301 301 301 300 300
296 296 296 295 294 295 296 298 298 298 299 298 297 297 296 294 293 294 294 295 296 297 298 299 299 298 298 297 297 297 297 297 298 298 298 298 298 298 298 299 299 298 298 298
301 299 298 298 296 295 294 296 297 298 296 296 296 296 294 293 294 294 294 295 295 297 298 299 298 298 297 296 297 296 297 297 297 297 297 297 297 298 298 297 297 297 297 297
300 296 295 296 297 295 296 295 295 296 296 295 293 294 294 293 294 295 296 295 296 298 298 298 298 298 297 297 297 297 295 295 295 295 294 295 295 295 294 296 296 296 295 295
296 295 296 295 297 294 295 296 298 296 295 295 294 294 294 295 296 297 296 298 298 298 298 298 297 296 297 297 296 296 295 294 294 293 293 293 292 292 291 291 291 291 292 292
295 294 297 296 295 294 294 294 294 294 293 292 294 294 295 294 295 296 297 297 297 297 297 297 297 296 296 295 295 294 293 294 293 293 292 291 290 289 289 288 288 288 288 289
296 294 293 294 295 294 293 293 295 295 293 292 292 293 295 296 296 295 296 296 296 295 295 295 295 294 293 293 293 293 293 292 291 290 289 288 287 286 286 286 286 287 287 288
294 295 292 292 293 294 294 295 296 296 294 293 293 294 295 294 294 294 294 294 294 295 294 293 292 291 292 292 290 290 288 289 289 288 287 286 286 285 285 285 285 286 286 286
295 296 294 294 294 294 294 294 294 294 294 294 294 294 294 294 294 295 295 295 294 293 292 291 288 288 289 287 287 286 286 286 287 287 286 285 285 285 285 284 284 285 285 285
293 294 294 292 293 293 294 294 294 294 294 294 294 294 294 294 295 295 295 294 292 290 290 286 287 288 288 287 287 287 286 285 286 286 285 285 285 285 284 284 284 284 284 285
293 292 292 292 293 293 293 294 294 293 293 294 294 293 292 294 295 295 293 291 291 289 288 289 289 288 287 288 287 287 286 286 286 285 285 285 285 285 284 284 283 283 283 283
292 292 292 292 291 292 293 293 292 293 293 294 293 293 292 294 294 293 288 285 288 287 288 289 287 287 287 287 287 286 285 285 284 285 285 285 284 284 283 283 283 283 282 282
291 291 291 291 290 290 292 293 293 293 293 293 293 293 293 291 292 290 289 286 288 288 288 287 287 286 285 285 285 285 284 284 283 283 283 283 283 282 281 281 281 282 283 283
291 291 291 291 290 290 291 292 292 292 292 292 292 292 291 291 290 284 284 287 288 287 287 286 285 285 286 286 285 284 283 282 282 281 281 281 281 281 281 281 281 281 281 282
290 291 291 291 291 290 289 290 292 292 292 292 293 293 292 287 285 286 288 288 287 286 285 284 283 283 283 282 281 280 280 280 280 280 280 281 281 280 280 280 280 280 280 281
290 290 290 288 288 289 289 290 290 291 291 292 291 292 291 288 287 287 287 286 284 284 282 281 281 280 280 279 279 278 278 278 277 277 277 277 277 278 279 280 279 279 280 280
287 287 289 290 290 290 289 289 288 287 288 286 286 286 285 287 287 286 284 283 281 281 280 279 279 278 278 277 277 277 276 275 275 275 274 274 274 274 274 275 277 278 279 279
289 290 289 288 290 290 289 288 287 286 287 286 285 286 286 285 284 283 281 280 280 279 278 278 277 276 276 276 275 275 275 274 274 273 273 273 273 273 273 273 274 275 277 277

GFSNGP_925_thetae_132.txt.gz
Theta_e
303 302 301 304 305 305 304 307 310 307 307 307 307 308 309 308 308 308 308 307 307 306 306 305 305 305 305 305 305 310 312 312 313 315 318 319 319 320 321 321 322 322 322 322
302 302 302 304 305 305 305 304 304 305 307 306 306 306 309 308 308 308 308 307 306 305 305 304 304 304 305 304 304 306 307 308 310 312 313 314 315 316 317 317 318 319 319 320
305 301 299 305 302 303 305 304 305 308 306 306 309 309 309 308 308 308 307 306 306 305 304 303 302 302 303 304 304 304 305 305 306 307 308 309 310 311 311 312 313 313 313 314
306 301 308 301 304 303 305 304 305 305 306 306 307 308 308 308 308 308 307 306 305 304 304 302 301 302 303 303 304 304 304 304 304 305 306 306 307 307 307 307 308 308 309 310
305 303 303 300 298 303 307 304 305 305 305 305 306 307 308 308 307 308 307 306 304 303 303 302 301 301 302 303 304 304 304 303 304 304 305 305 305 305 305 305 305 305 306 307
302 304 305 301 304 305 305 304 304 304 305 305 306 309 307 305 306 306 305 304 304 303 302 302 301 301 302 302 303 302 302 302 303 303 304 304 303 303 303 304 304 304 304 304
303 305 303 300 305 304 303 304 301 304 305 305 307 307 305 304 305 305 305 303 303 302 303 302 300 300 301 301 301 300 301 302 302 302 302 302 302 302 302 303 303 303 303 303
301 303 306 300 304 305 305 298 303 303 305 305 306 306 305 305 305 305 303 301 302 302 302 301 300 300 300 300 299 300 300 301 301 301 301 301 302 302 302 302 303 303 303 303
304 307 300 304 306 305 300 303 302 304 304 304 305 305 305 305 305 304 302 301 301 301 301 300 299 299 300 299 298 299 300 300 300 300 300 300 301 301 301 301 301 300 299 299
302 305 302 300 302 303 303 302 302 304 304 304 304 304 304 304 304 303 302 301 299 299 300 300 299 299 299 297 297 297 298 298 298 299 299 299 299 299 299 299 299 299 299 298
301 302 301 302 300 301 301 301 302 301 303 303 303 304 304 304 303 303 301 299 298 298 298 299 299 299 298 297 297 297 297 297 298 298 298 298 297 297 297 297 296 296 297 297
305 306 305 305 305 302 301 300 300 300 301 301 303 304 304 303 303 301 300 298 297 297 297 297 298 298 298 297 296 297 298 298 298 297 297 297 297 297 295 294 293 292 293 292
303 304 304 303 302 300 300 301 300 299 300 300 300 301 302 302 302 300 299 298 297 297 296 297 297 298 298 297 296 297 298 297 297 297 296 296 296 294 293 293 291 290 289 288
301 302 301 301 300 300 299 299 298 298 298 298 299 299 300 301 300 299 299 297 296 296 296 297 298 298 298 296 296 296 296 296 295 295 295 294 294 292 291 290 289 290 289 288
301 300 300 301 301 300 299 297 297 298 299 299 298 299 298 299 299 299 297 296 296 296 298 298 298 297 296 296 296 295 294 295 294 294 292 292 291 289 288 288 288 288 288 288
300 301 301 299 298 298 298 297 297 299 299 299 299 298 298 298 299 297 296 296 296 297 298 298 298 297 296 296 295 294 293 293 292 291 291 290 288 288 288 287 287 288 288 287
299 299 299 298 298 298 298 297 297 298 298 298 298 298 297 297 297 296 296 296 296 297 297 297 296 296 295 294 294 293 292 291 289 288 289 288 287 287 287 287 287 287 287 286
299 300 300 300 299 298 296 296 296 296 297 297 297 297 297 297 298 297 296 296 295 295 295 295 295 294 293 292 291 290 289 288 288 287 287 287 287 287 287 286 286 286 286 286
299 298 298 297 297 297 296 296 295 295 295 295 296 296 296 296 297 296 295 294 294 294 294 294 293 292 291 289 288 288 288 287 287 286 286 286 286 286 286 286 286 285 284 284
295 295 294 295 294 294 295 294 294 294 294 295 295 295 295 295 296 294 294 295 295 295 294 294 292 289 287 288 287 287 287 287 286 286 285 285 285 285 285 284 284 284 283 282
295 295 295 295 295 294 293 293 293 294 294 294 295 295 295 295 295 295 295 296 293 294 294 293 287 287 288 287 287 287 286 286 285 285 284 284 283 283 283 282 282 282 281 281
295 294 295 294 294 294 293 293 293 293 293 293 294 294 294 294 294 294 295 295 291 292 292 288 288 288 287 287 286 286 285 284 284 283 282 282 282 282 282 281 282 281 281 281
294 294 294 294 294 294 292 292 292 292 293 293 293 293 293 294 293 293 293 292 292 291 290 287 288 287 286 286 285 285 284 283 281 280 279 279 279 279 279 279 279 279 279 280
293 293 293 292 291 292 293 292 291 291 291 291 292 292 292 291 290 292 293 292 291 288 287 288 287 286 286 285 283 281 280 279 278 278 277 277 276 276 276 276 275 276 276 276
293 293 291 291 292 294 292 291 289 290 290 290 290 290 291 291 292 289 290 288 288 288 286 286 285 283 282 281 280 279 278 277 276 276 275 275 274 274 274 274 273 274 274 275
292 294 293 292 294 292 291 289 291 290 289 289 288 287 288 289 290 288 287 287 285 284 283 283 281 280 280 279 278 277 276 276 275 275 274 274 274 274 273 273 272 272 272 272
290 291 291 290 289 290 290 289 290 289 289 289 287 285 286 286 286 285 284 283 282 281 280 279 279 278 278 277 276 276 276 275 275 275 275 275 275 274 274 274 274 273 271 271

GFSNGP_925_thetae_135.txt.gz
Theta_e
305 304 304 304 305 305 307 307 310 309 308 307 306 307 309 310 310 310 310 310 309 309 309 308 307 307 307 307 308 310 311 313 314 314 316 317 319 320 321 321 322 322 322 322
304 304 304 304 304 306 306 307 307 306 306 306 307 307 308 310 310 310 310 310 309 308 308 307 306 306 307 307 307 307 309 310 311 312 313 313 314 315 316 317 318 320 320 320
310 302 302 309 304 304 305 306 307 307 307 307 307 308 309 309 310 310 310 309 308 308 307 306 305 305 306 306 307 306 306 307 308 309 309 310 311 310 311 312 312 312 313 314
309 308 315 306 305 304 304 306 306 305 305 306 306 307 308 309 309 309 309 309 308 307 307 305 305 304 305 306 306 306 306 306 306 307 308 308 307 307 307 308 308 309 309 310
308 307 308 305 299 306 306 306 306 305 305 305 306 307 308 308 308 309 309 308 307 306 306 305 304 304 305 306 306 305 305 305 305 306 306 306 306 306 306 305 306 306 306 306
307 307 309 304 302 305 305 305 306 306 305 305 306 308 307 307 308 308 308 307 306 306 305 305 305 303 304 305 305 304 304 304 304 304 305 304 304 304 304 304 304 304 304 304
307 308 307 304 305 306 306 307 306 305 305 305 306 306 307 306 307 307 307 307 305 305 305 305 304 303 304 304 304 303 303 303 303 303 304 304 304 303 304 304 304 304 304 304
306 308 309 306 306 306 307 304 304 305 306 306 306 306 307 306 306 307 307 306 304 304 304 304 303 302 303 303 301 302 303 303 303 302 302 303 303 303 303 303 304 303 303 303
307 309 304 306 307 306 305 305 304 305 306 306 307 306 306 306 306 306 306 305 303 303 303 303 302 302 303 302 300 301 302 302 302 301 301 301 301 301 302 301 301 301 301 300
304 306 306 304 305 306 306 306 305 305 305 306 305 306 306 306 306 306 305 304 303 302 302 302 302 302 302 301 299 300 301 300 300 301 300 300 300 300 300 300 300 300 299 299
304 304 305 304 305 304 304 304 304 304 304 304 305 305 305 305 305 305 305 304 303 302 301 301 301 301 301 300 299 299 300 300 300 300 299 299 299 298 298 298 296 296 296 295
306 307 307 307 307 306 305 304 304 303 303 303 303 305 305 305 305 305 305 304 302 301 301 300 300 300 300 300 299 299 299 300 300 299 299 299 298 298 297 295 294 293 292 291
305 306 306 305 305 305 304 304 303 302 303 303 303 303 304 305 304 304 304 303 302 301 300 299 299 298 299 299 299 299 300 300 299 298 298 298 297 297 295 295 292 290 289 288
304 304 304 304 305 305 303 302 302 301 300 300 301 301 302 303 303 303 303 302 301 300 299 298 298 298 299 299 298 298 298 298 297 297 297 296 296 295 294 292 291 291 290 289
305 305 304 304 304 304 303 302 301 300 300 301 300 301 301 301 302 303 302 301 300 299 298 298 298 298 299 299 298 298 297 296 296 296 295 294 294 292 291 290 290 289 289 289
306 305 304 304 304 302 301 301 301 300 300 300 301 301 300 301 301 302 301 300 298 298 298 298 299 299 298 297 297 297 296 295 294 294 292 292 292 290 289 289 289 289 289 289
304 303 303 302 302 302 302 301 301 300 300 300 300 300 300 300 300 300 300 299 298 298 299 299 299 298 297 297 296 295 295 294 293 292 289 290 290 289 289 288 288 288 288 288
304 304 303 303 302 301 301 300 300 299 299 299 299 299 299 300 300 300 300 298 298 298 298 298 298 297 296 295 294 294 293 292 291 289 289 289 289 288 288 288 288 287 287 286
303 303 303 302 301 300 300 300 299 298 298 297 297 298 298 298 299 299 299 297 297 297 297 297 296 295 294 294 293 292 290 289 289 288 287 288 287 287 287 286 286 286 286 285
300 299 299 299 299 298 298 297 297 297 296 296 296 297 298 297 297 298 297 297 297 297 296 295 294 294 294 293 291 289 288 288 288 287 287 286 286 286 286 285 285 285 284 284
298 297 296 296 297 296 295 295 296 296 296 295 296 297 297 296 296 297 296 297 296 296 295 295 294 293 291 289 288 288 288 288 287 287 286 286 285 284 283 283 283 283 283 282
297 297 297 296 296 296 295 295 295 294 295 295 295 296 296 296 296 296 296 297 295 294 294 293 292 291 288 288 287 287 287 286 286 285 284 283 283 282 282 282 282 281 281 281
297 296 296 296 296 296 294 294 294 294 294 294 294 295 295 296 295 295 295 294 293 292 291 290 289 287 288 287 287 286 285 285 284 282 281 280 280 280 279 278 278 278 278 278
296 296 296 295 294 294 295 294 293 293 293 293 293 293 294 294 294 295 294 292 291 291 290 289 288 288 287 286 285 284 283 281 280 279 278 278 277 277 276 276 276 276 275 275
296 295 294 294 294 294 295 293 292 291 292 292 292 292 293 293 292 291 290 290 289 289 288 288 288 287 284 283 282 281 280 279 278 277 277 276 276 276 275 275 275 275 275 274
294 295 295 294 295 295 294 292 293 293 292 291 290 290 290 290 290 289 289 288 287 287 287 287 285 282 281 280 280 279 278 277 276 276 276 276 276 275 275 275 275 275 274 273
293 294 293 292 292 292 292 292 292 291 291 291 289 288 288 288 288 288 287 285 285 284 284 282 281 279 279 278 277 277 276 276 276 276 276 276 276 276 276 276 276 275 274 273